Observation data for Panhandle on 01/20/2019      Previous  Date  Next       Current Mesonet Observations  Soil Data  Daily Summary Page  Observations in Plain Language
KPA1 200600Z 18005KT M04/M06 A3026 RMK A01 T10431059  RH  088%=      5-min Rain = 0
KPA1 200601Z 18005KT M04/M06 A3026 RMK A01 T10431059  RH  088%=      5-min Rain = 0
KPA1 200602Z 18005KT M04/M06 A3026 RMK A01 T10421059  RH  088%=      5-min Rain = 0
KPA1 200603Z 17005KT M04/M06 A3026 RMK A01 T10421059  RH  088%=      5-min Rain = 0
KPA1 200604Z 17005KT M04/M06 A3026 RMK A01 T10431062  RH  087%=      5-min Rain = 0
KPA1 200605Z 17005KT M05/M06 A3026 RMK A01 T10451064  RH  087%=      5-min Rain = 0
KPA1 200606Z 18006KT M05/M07 A3026 RMK A01 T10461065  RH  087%=      5-min Rain = 0
KPA1 200607Z 18006KT M05/M07 A3026 RMK A01 T10481066  RH  087%=      5-min Rain = 0
KPA1 200608Z 18005KT M05/M07 A3026 RMK A01 T10481066  RH  087%=      5-min Rain = 0
KPA1 200609Z 18005KT M05/M07 A3026 RMK A01 T10481065  RH  088%=      5-min Rain = 0
KPA1 200610Z 18005KT M05/M07 A3026 RMK A01 T10481065  RH  088%=      5-min Rain = 0
KPA1 200611Z 19004KT M05/M06 A3026 RMK A01 T10481064  RH  088%=      5-min Rain = 0
KPA1 200612Z 19004KT M05/M06 A3027 RMK A01 T10481064  RH  089%=      5-min Rain = 0
KPA1 200613Z 20004KT M05/M06 A3027 RMK A01 T10471064  RH  088%=      5-min Rain = 0
KPA1 200614Z 20005KT M05/M06 A3027 RMK A01 T10471064  RH  088%=      5-min Rain = 0
KPA1 200615Z 18004KT M05/M07 A3026 RMK A01 T10481065  RH  088%=      5-min Rain = 0
KPA1 200616Z 18004KT M05/M07 A3026 RMK A01 T10481065  RH  088%=      5-min Rain = 0
KPA1 200617Z 18004KT M05/M06 A3026 RMK A01 T10481064  RH  088%=      5-min Rain = 0
KPA1 200618Z 19005KT M05/M06 A3026 RMK A01 T10481064  RH  089%=      5-min Rain = 0
KPA1 200619Z 18005KT M05/M07 A3026 RMK A01 T10491065  RH  089%=      5-min Rain = 0
KPA1 200620Z 17006KT M05/M06 A3026 RMK A01 T10481064  RH  089%=      5-min Rain = 0
KPA1 200621Z 17006KT M05/M06 A3026 RMK A01 T10471064  RH  088%=      5-min Rain = 0
KPA1 200622Z 17005KT M05/M06 A3026 RMK A01 T10471064  RH  088%=      5-min Rain = 0
KPA1 200623Z 18005KT M05/M06 A3026 RMK A01 T10471064  RH  088%=      5-min Rain = 0
KPA1 200624Z 18006KT M05/M06 A3026 RMK A01 T10471064  RH  088%=      5-min Rain = 0
KPA1 200625Z 17006KT M05/M06 A3026 RMK A01 T10471063  RH  088%=      5-min Rain = 0
KPA1 200626Z 17007KT M05/M06 A3026 RMK A01 T10451061  RH  088%=      5-min Rain = 0
KPA1 200627Z 17007KT M04/M06 A3026 RMK A01 T10441061  RH  088%=      5-min Rain = 0
KPA1 200628Z 17007KT M04/M06 A3026 RMK A01 T10441062  RH  087%=      5-min Rain = 0
KPA1 200629Z 17006KT M04/M06 A3026 RMK A01 T10441063  RH  087%=      5-min Rain = 0
KPA1 200630Z 17006KT M05/M06 A3026 RMK A01 T10451064  RH  087%=      5-min Rain = 0
KPA1 200631Z 17006KT M05/M07 A3027 RMK A01 T10461065  RH  087%=      5-min Rain = 0
KPA1 200632Z 17005KT M05/M07 A3026 RMK A01 T10471066  RH  087%=      5-min Rain = 0
KPA1 200633Z 17005KT M05/M07 A3026 RMK A01 T10481067  RH  087%=      5-min Rain = 0
KPA1 200634Z 17005KT M05/M07 A3026 RMK A01 T10481066  RH  087%=      5-min Rain = 0
KPA1 200635Z 17005KT M05/M07 A3026 RMK A01 T10481067  RH  087%=      5-min Rain = 0
KPA1 200636Z 17005KT M05/M07 A3026 RMK A01 T10491066  RH  087%=      5-min Rain = 0
KPA1 200637Z 16005KT M05/M07 A3026 RMK A01 T10491066  RH  087%=      5-min Rain = 0
KPA1 200638Z 15005KT M05/M07 A3026 RMK A01 T10481066  RH  088%=      5-min Rain = 0
KPA1 200639Z 15005KT M05/M07 A3026 RMK A01 T10481066  RH  087%=      5-min Rain = 0
KPA1 200640Z 16005KT M05/M07 A3027 RMK A01 T10481066  RH  087%=      5-min Rain = 0
KPA1 200641Z 16005KT M05/M07 A3027 RMK A01 T10471065  RH  087%=      5-min Rain = 0
KPA1 200642Z 17004KT M05/M07 A3027 RMK A01 T10471065  RH  087%=      5-min Rain = 0
KPA1 200643Z 17004KT M05/M07 A3027 RMK A01 T10471065  RH  087%=      5-min Rain = 0
KPA1 200644Z 17004KT M05/M07 A3027 RMK A01 T10471066  RH  086%=      5-min Rain = 0
KPA1 200645Z 17004KT M05/M07 A3027 RMK A01 T10481068  RH  086%=      5-min Rain = 0
KPA1 200646Z 16005KT M05/M07 A3027 RMK A01 T10491068  RH  086%=      5-min Rain = 0
KPA1 200647Z 16005KT M05/M07 A3027 RMK A01 T10491067  RH  087%=      5-min Rain = 0
KPA1 200648Z 16005KT M05/M07 A3026 RMK A01 T10491068  RH  087%=      5-min Rain = 0
KPA1 200649Z 16005KT M05/M07 A3026 RMK A01 T10491068  RH  086%=      5-min Rain = 0
KPA1 200650Z 17005KT M05/M07 A3026 RMK A01 T10491069  RH  086%=      5-min Rain = 0
KPA1 200651Z 16004KT M05/M07 A3027 RMK A01 T10501069  RH  086%=      5-min Rain = 0
KPA1 200652Z 15004KT M05/M07 A3027 RMK A01 T10511070  RH  087%=      5-min Rain = 0
KPA1 200653Z 15004KT M05/M07 A3027 RMK A01 T10521071  RH  087%=      5-min Rain = 0
KPA1 200654Z 15004KT M05/M07 A3027 RMK A01 T10521071  RH  087%=      5-min Rain = 0
KPA1 200655Z 15004KT M05/M07 A3027 RMK A01 T10521070  RH  087%=      5-min Rain = 0
KPA1 200656Z 15004KT M05/M07 A3027 RMK A01 T10521070  RH  087%=      5-min Rain = 0
KPA1 200657Z 15005KT M05/M07 A3027 RMK A01 T10521070  RH  087%=      5-min Rain = 0
KPA1 200658Z 15004KT M05/M07 A3027 RMK A01 T10531070  RH  088%=      5-min Rain = 0
KPA1 200659Z 15005KT M05/M07 A3027 RMK A01 T10521069  RH  088%=      5-min Rain = 0
KPA1 200700Z 15005KT M05/M07 A3026 RMK A01 T10511068  RH  088%=      5-min Rain = 0
KPA1 200701Z 15006KT M05/M07 A3026 RMK A01 T10491066  RH  088%=      5-min Rain = 0
KPA1 200702Z 15006KT M05/M07 A3026 RMK A01 T10471065  RH  087%=      5-min Rain = 0
KPA1 200703Z 16008KT M05/M07 A3026 RMK A01 T10451065  RH  086%=      5-min Rain = 0
KPA1 200704Z 16008KT M05/M07 A3026 RMK A01 T10451066  RH  085%=      5-min Rain = 0
KPA1 200705Z 15008KT M05/M07 A3026 RMK A01 T10451066  RH  086%=      5-min Rain = 0
KPA1 200706Z 15008KT M05/M06 A3026 RMK A01 T10451064  RH  086%=      5-min Rain = 0
KPA1 200707Z 15007KT M04/M06 A3026 RMK A01 T10441063  RH  086%=      5-min Rain = 0
KPA1 200708Z 16006KT M04/M06 A3026 RMK A01 T10431062  RH  086%=      5-min Rain = 0
KPA1 200709Z 17005KT M04/M06 A3026 RMK A01 T10431063  RH  086%=      5-min Rain = 0
KPA1 200710Z 16005KT M04/M07 A3026 RMK A01 T10441065  RH  085%=      5-min Rain = 0
KPA1 200711Z 16006KT M04/M07 A3027 RMK A01 T10441065  RH  085%=      5-min Rain = 0
KPA1 200712Z 16006KT M05/M07 A3026 RMK A01 T10451066  RH  085%=      5-min Rain = 0
KPA1 200713Z 16008KT M05/M07 A3026 RMK A01 T10471067  RH  085%=      5-min Rain = 0
KPA1 200714Z 16008KT M05/M07 A3026 RMK A01 T10471067  RH  086%=      5-min Rain = 0
KPA1 200715Z 16008KT M05/M07 A3026 RMK A01 T10471067  RH  086%=      5-min Rain = 0
KPA1 200716Z 16008KT M05/M07 A3026 RMK A01 T10471067  RH  086%=      5-min Rain = 0
KPA1 200717Z 16008KT M05/M07 A3026 RMK A01 T10481067  RH  087%=      5-min Rain = 0
KPA1 200718Z 18007KT M05/M07 A3026 RMK A01 T10481067  RH  087%=      5-min Rain = 0
KPA1 200719Z 19005KT M05/M07 A3026 RMK A01 T10491067  RH  087%=      5-min Rain = 0
KPA1 200720Z 18005KT M05/M07 A3026 RMK A01 T10491068  RH  087%=      5-min Rain = 0
KPA1 200721Z 18004KT M05/M07 A3026 RMK A01 T10511070  RH  086%=      5-min Rain = 0
KPA1 200722Z 18005KT M05/M07 A3026 RMK A01 T10511070  RH  087%=      5-min Rain = 0
KPA1 200723Z 18004KT M05/M07 A3026 RMK A01 T10511069  RH  087%=      5-min Rain = 0
KPA1 200724Z 18004KT M05/M07 A3026 RMK A01 T10501068  RH  087%=      5-min Rain = 0
KPA1 200725Z 17005KT M05/M07 A3027 RMK A01 T10511069  RH  087%=      5-min Rain = 0
KPA1 200726Z 17005KT M05/M07 A3027 RMK A01 T10511069  RH  087%=      5-min Rain = 0
KPA1 200727Z 17004KT M05/M07 A3027 RMK A01 T10521070  RH  087%=      5-min Rain = 0
KPA1 200728Z 17004KT M05/M07 A3027 RMK A01 T10521070  RH  087%=      5-min Rain = 0
KPA1 200729Z 18004KT M05/M07 A3027 RMK A01 T10531071  RH  087%=      5-min Rain = 0
KPA1 200730Z 18004KT M05/M07 A3027 RMK A01 T10531071  RH  087%=      5-min Rain = 0
KPA1 200731Z 18004KT M05/M07 A3027 RMK A01 T10531070  RH  087%=      5-min Rain = 0
KPA1 200732Z 18004KT M05/M07 A3027 RMK A01 T10531071  RH  087%=      5-min Rain = 0
KPA1 200733Z 17004KT M05/M07 A3027 RMK A01 T10531071  RH  088%=      5-min Rain = 0
KPA1 200734Z 16005KT M05/M07 A3027 RMK A01 T10531070  RH  088%=      5-min Rain = 0
KPA1 200735Z 16005KT M05/M07 A3027 RMK A01 T10531070  RH  088%=      5-min Rain = 0
KPA1 200736Z 16004KT M05/M07 A3027 RMK A01 T10531070  RH  088%=      5-min Rain = 0
KPA1 200737Z 16004KT M05/M07 A3027 RMK A01 T10521070  RH  088%=      5-min Rain = 0
KPA1 200738Z 16004KT M05/M07 A3026 RMK A01 T10521068  RH  088%=      5-min Rain = 0
KPA1 200739Z 16004KT M05/M07 A3026 RMK A01 T10521069  RH  088%=      5-min Rain = 0
KPA1 200740Z 17003KT M05/M07 A3027 RMK A01 T10521070  RH  087%=      5-min Rain = 0
KPA1 200741Z 17003KT M05/M07 A3026 RMK A01 T10531071  RH  087%=      5-min Rain = 0
KPA1 200742Z 16004KT M05/M07 A3026 RMK A01 T10531071  RH  087%=      5-min Rain = 0
KPA1 200743Z 16006KT M05/M07 A3026 RMK A01 T10541071  RH  088%=      5-min Rain = 0
KPA1 200744Z 16006KT M06/M07 A3026 RMK A01 T10561074  RH  087%=      5-min Rain = 0
KPA1 200745Z 17006KT M06/M08 A3026 RMK A01 T10571075  RH  087%=      5-min Rain = 0
KPA1 200746Z 17006KT M06/M08 A3026 RMK A01 T10571075  RH  088%=      5-min Rain = 0
KPA1 200747Z 17007KT M06/M07 A3026 RMK A01 T10571074  RH  088%=      5-min Rain = 0
KPA1 200748Z 17007KT M06/M07 A3026 RMK A01 T10581074  RH  089%=      5-min Rain = 0
KPA1 200749Z 16007KT M06/M07 A3026 RMK A01 T10581074  RH  088%=      5-min Rain = 0
KPA1 200750Z 16007KT M06/M08 A3026 RMK A01 T10581075  RH  088%=      5-min Rain = 0
KPA1 200751Z 16007KT M06/M08 A3026 RMK A01 T10591075  RH  088%=      5-min Rain = 0
KPA1 200752Z 16007KT M06/M07 A3026 RMK A01 T10591074  RH  089%=      5-min Rain = 0
KPA1 200753Z 17007KT M06/M08 A3026 RMK A01 T10591075  RH  089%=      5-min Rain = 0
KPA1 200754Z 17008KT M06/M08 A3026 RMK A01 T10591075  RH  089%=      5-min Rain = 0
KPA1 200755Z 17008KT M06/M08 A3026 RMK A01 T10601075  RH  089%=      5-min Rain = 0
KPA1 200756Z 17007KT M06/M07 A3026 RMK A01 T10591074  RH  089%=      5-min Rain = 0
KPA1 200757Z 17007KT M06/M08 A3026 RMK A01 T10601075  RH  089%=      5-min Rain = 0
KPA1 200758Z 17007KT M06/M08 A3026 RMK A01 T10601075  RH  089%=      5-min Rain = 0
KPA1 200759Z 17007KT M06/M08 A3026 RMK A01 T10611076  RH  089%=      5-min Rain = 0
KPA1 200800Z 17007KT M06/M08 A3026 RMK A01 T10611076  RH  089%=      5-min Rain = 0
KPA1 200801Z 17007KT M06/M08 A3026 RMK A01 T10621076  RH  089%=      5-min Rain = 0
KPA1 200802Z 17007KT M06/M08 A3026 RMK A01 T10631077  RH  089%=      5-min Rain = 0
KPA1 200803Z 17007KT M06/M08 A3026 RMK A01 T10631077  RH  090%=      5-min Rain = 0
KPA1 200804Z 16007KT M06/M08 A3026 RMK A01 T10631077  RH  090%=      5-min Rain = 0
KPA1 200805Z 16007KT M06/M08 A3026 RMK A01 T10631077  RH  090%=      5-min Rain = 0
KPA1 200806Z 16006KT M06/M08 A3026 RMK A01 T10631077  RH  090%=      5-min Rain = 0
KPA1 200807Z 16006KT M06/M08 A3026 RMK A01 T10641077  RH  090%=      5-min Rain = 0
KPA1 200808Z 16006KT M06/M08 A3025 RMK A01 T10641078  RH  090%=      5-min Rain = 0
KPA1 200809Z 17006KT M07/M08 A3025 RMK A01 T10651078  RH  090%=      5-min Rain = 0
KPA1 200810Z 17006KT M06/M08 A3025 RMK A01 T10641077  RH  091%=      5-min Rain = 0
KPA1 200811Z 17007KT M07/M08 A3025 RMK A01 T10651077  RH  091%=      5-min Rain = 0
KPA1 200812Z 17007KT M06/M08 A3025 RMK A01 T10641075  RH  092%=      5-min Rain = 0
KPA1 200813Z 17007KT M06/M07 A3025 RMK A01 T10631074  RH  092%=      5-min Rain = 0
KPA1 200814Z 17007KT M06/M07 A3025 RMK A01 T10621074  RH  092%=      5-min Rain = 0
KPA1 200815Z 17008KT M06/M07 A3025 RMK A01 T10611072  RH  092%=      5-min Rain = 0
KPA1 200816Z 17008KT M06/M07 A3025 RMK A01 T10601071  RH  092%=      5-min Rain = 0
KPA1 200817Z 18007KT M06/M07 A3025 RMK A01 T10581068  RH  093%=      5-min Rain = 0
KPA1 200818Z 17007KT M06/M07 A3025 RMK A01 T10561066  RH  093%=      5-min Rain = 0
KPA1 200819Z 17007KT M05/M06 A3025 RMK A01 T10541064  RH  093%=      5-min Rain = 0
KPA1 200820Z 17007KT M05/M06 A3025 RMK A01 T10531064  RH  093%=      5-min Rain = 0
KPA1 200821Z 17007KT M05/M06 A3025 RMK A01 T10531063  RH  092%=      5-min Rain = 0
KPA1 200822Z 17007KT M05/M06 A3025 RMK A01 T10521063  RH  092%=      5-min Rain = 0
KPA1 200823Z 17007KT M05/M06 A3025 RMK A01 T10521064  RH  092%=      5-min Rain = 0
KPA1 200824Z 17006KT M05/M06 A3025 RMK A01 T10521063  RH  091%=      5-min Rain = 0
KPA1 200825Z 17006KT M05/M06 A3026 RMK A01 T10511063  RH  091%=      5-min Rain = 0
KPA1 200826Z 17006KT M05/M06 A3026 RMK A01 T10521064  RH  091%=      5-min Rain = 0
KPA1 200827Z 17006KT M05/M06 A3026 RMK A01 T10521064  RH  091%=      5-min Rain = 0
KPA1 200828Z 16006KT M05/M06 A3026 RMK A01 T10511064  RH  091%=      5-min Rain = 0
KPA1 200829Z 16006KT M05/M06 A3025 RMK A01 T10511064  RH  091%=      5-min Rain = 0
KPA1 200830Z 16006KT M05/M06 A3025 RMK A01 T10511064  RH  091%=      5-min Rain = 0
KPA1 200831Z 16006KT M05/M06 A3025 RMK A01 T10511064  RH  091%=      5-min Rain = 0
KPA1 200832Z 15005KT M05/M06 A3025 RMK A01 T10511064  RH  091%=      5-min Rain = 0
KPA1 200833Z 15006KT M05/M06 A3025 RMK A01 T10511064  RH  091%=      5-min Rain = 0
KPA1 200834Z 16006KT M05/M06 A3026 RMK A01 T10511064  RH  091%=      5-min Rain = 0
KPA1 200835Z 16007KT M05/M06 A3026 RMK A01 T10511064  RH  091%=      5-min Rain = 0
KPA1 200836Z 16007KT M05/M06 A3026 RMK A01 T10511064  RH  091%=      5-min Rain = 0
KPA1 200837Z 16006KT M05/M06 A3026 RMK A01 T10501063  RH  091%=      5-min Rain = 0
KPA1 200838Z 16006KT M05/M06 A3026 RMK A01 T10501063  RH  090%=      5-min Rain = 0
KPA1 200839Z 16006KT M05/M06 A3026 RMK A01 T10501064  RH  090%=      5-min Rain = 0
KPA1 200840Z 15006KT M05/M06 A3026 RMK A01 T10501064  RH  090%=      5-min Rain = 0
KPA1 200841Z 15006KT M05/M06 A3026 RMK A01 T10501064  RH  090%=      5-min Rain = 0
KPA1 200842Z 15006KT M05/M06 A3026 RMK A01 T10501064  RH  090%=      5-min Rain = 0
KPA1 200843Z 15007KT M05/M06 A3026 RMK A01 T10501064  RH  090%=      5-min Rain = 0
KPA1 200844Z 15007KT M05/M06 A3026 RMK A01 T10501064  RH  090%=      5-min Rain = 0
KPA1 200845Z 15007KT M05/M06 A3026 RMK A01 T10501064  RH  090%=      5-min Rain = 0
KPA1 200846Z 15007KT M05/M06 A3026 RMK A01 T10501063  RH  090%=      5-min Rain = 0
KPA1 200847Z 16007KT M05/M06 A3026 RMK A01 T10501064  RH  090%=      5-min Rain = 0
KPA1 200848Z 15006KT M05/M06 A3026 RMK A01 T10501064  RH  090%=      5-min Rain = 0
KPA1 200849Z 15006KT M05/M07 A3026 RMK A01 T10501065  RH  090%=      5-min Rain = 0
KPA1 200850Z 15006KT M05/M07 A3026 RMK A01 T10511065  RH  090%=      5-min Rain = 0
KPA1 200851Z 15005KT M05/M07 A3026 RMK A01 T10511065  RH  090%=      5-min Rain = 0
KPA1 200852Z 14006KT M05/M07 A3026 RMK A01 T10501065  RH  090%=      5-min Rain = 0
KPA1 200853Z 14005KT M05/M07 A3027 RMK A01 T10511066  RH  089%=      5-min Rain = 0
KPA1 200854Z 15005KT M05/M07 A3027 RMK A01 T10511066  RH  089%=      5-min Rain = 0
KPA1 200855Z 15005KT M05/M07 A3027 RMK A01 T10521067  RH  089%=      5-min Rain = 0
KPA1 200856Z 15005KT M05/M07 A3027 RMK A01 T10511067  RH  089%=      5-min Rain = 0
KPA1 200857Z 14006KT M05/M07 A3027 RMK A01 T10521067  RH  089%=      5-min Rain = 0
KPA1 200858Z 15006KT M05/M07 A3027 RMK A01 T10521067  RH  089%=      5-min Rain = 0
KPA1 200859Z 15006KT M05/M07 A3027 RMK A01 T10521068  RH  089%=      5-min Rain = 0
KPA1 200900Z 15006KT M05/M07 A3026 RMK A01 T10521068  RH  088%=      5-min Rain = 0
KPA1 200901Z 15007KT M05/M07 A3026 RMK A01 T10531069  RH  088%=      5-min Rain = 0
KPA1 200902Z 15007KT M05/M07 A3026 RMK A01 T10541070  RH  088%=      5-min Rain = 0
KPA1 200903Z 15007KT M06/M07 A3026 RMK A01 T10551071  RH  088%=      5-min Rain = 0
KPA1 200904Z 15007KT M06/M07 A3026 RMK A01 T10551071  RH  089%=      5-min Rain = 0
KPA1 200905Z 15007KT M06/M07 A3026 RMK A01 T10561072  RH  089%=      5-min Rain = 0
KPA1 200906Z 15007KT M06/M07 A3026 RMK A01 T10571073  RH  089%=      5-min Rain = 0
KPA1 200907Z 15007KT M06/M07 A3026 RMK A01 T10571072  RH  089%=      5-min Rain = 0
KPA1 200908Z 15007KT M06/M07 A3026 RMK A01 T10571072  RH  089%=      5-min Rain = 0
KPA1 200909Z 15007KT M06/M07 A3026 RMK A01 T10571072  RH  090%=      5-min Rain = 0
KPA1 200910Z 15007KT M06/M07 A3026 RMK A01 T10571071  RH  090%=      5-min Rain = 0
KPA1 200911Z 16007KT M06/M07 A3026 RMK A01 T10581071  RH  090%=      5-min Rain = 0
KPA1 200912Z 16007KT M06/M07 A3026 RMK A01 T10571071  RH  090%=      5-min Rain = 0
KPA1 200913Z 16007KT M06/M07 A3026 RMK A01 T10571071  RH  090%=      5-min Rain = 0
KPA1 200914Z 16007KT M06/M07 A3026 RMK A01 T10571071  RH  090%=      5-min Rain = 0
KPA1 200915Z 15007KT M06/M07 A3026 RMK A01 T10571071  RH  090%=      5-min Rain = 0
KPA1 200916Z 15007KT M06/M07 A3026 RMK A01 T10571071  RH  090%=      5-min Rain = 0
KPA1 200917Z 16007KT M06/M07 A3026 RMK A01 T10561070  RH  090%=      5-min Rain = 0
KPA1 200918Z 16007KT M06/M07 A3026 RMK A01 T10561070  RH  090%=      5-min Rain = 0
KPA1 200919Z 16007KT M06/M07 A3026 RMK A01 T10561070  RH  090%=      5-min Rain = 0
KPA1 200920Z 16007KT M06/M07 A3026 RMK A01 T10561071  RH  089%=      5-min Rain = 0
KPA1 200921Z 16007KT M06/M07 A3026 RMK A01 T10561071  RH  089%=      5-min Rain = 0
KPA1 200922Z 16008KT M06/M07 A3026 RMK A01 T10551070  RH  089%=      5-min Rain = 0
KPA1 200923Z 16008KT M06/M07 A3026 RMK A01 T10551070  RH  089%=      5-min Rain = 0
KPA1 200924Z 16008KT M06/M07 A3026 RMK A01 T10561071  RH  089%=      5-min Rain = 0
KPA1 200925Z 16008KT M06/M07 A3026 RMK A01 T10561071  RH  089%=      5-min Rain = 0
KPA1 200926Z 16008KT M06/M07 A3026 RMK A01 T10561071  RH  089%=      5-min Rain = 0
KPA1 200927Z 16007KT M06/M07 A3026 RMK A01 T10561072  RH  089%=      5-min Rain = 0
KPA1 200928Z 16007KT M06/M07 A3026 RMK A01 T10561072  RH  089%=      5-min Rain = 0
KPA1 200929Z 16007KT M06/M07 A3026 RMK A01 T10571072  RH  089%=      5-min Rain = 0
KPA1 200930Z 16008KT M06/M07 A3026 RMK A01 T10581073  RH  089%=      5-min Rain = 0
KPA1 200931Z 16007KT M06/M07 A3025 RMK A01 T10581074  RH  089%=      5-min Rain = 0
KPA1 200932Z 16008KT M06/M07 A3025 RMK A01 T10581074  RH  089%=      5-min Rain = 0
KPA1 200933Z 16008KT M06/M08 A3025 RMK A01 T10591075  RH  089%=      5-min Rain = 0
KPA1 200934Z 16007KT M06/M08 A3025 RMK A01 T10601075  RH  089%=      5-min Rain = 0
KPA1 200935Z 16007KT M06/M08 A3026 RMK A01 T10601076  RH  089%=      5-min Rain = 0
KPA1 200936Z 16007KT M06/M08 A3026 RMK A01 T10611076  RH  089%=      5-min Rain = 0
KPA1 200937Z 16006KT M06/M08 A3026 RMK A01 T10611076  RH  089%=      5-min Rain = 0
KPA1 200938Z 16005KT M06/M08 A3026 RMK A01 T10621077  RH  089%=      5-min Rain = 0
KPA1 200939Z 16005KT M06/M08 A3026 RMK A01 T10631077  RH  089%=      5-min Rain = 0
KPA1 200940Z 16005KT M06/M08 A3026 RMK A01 T10631077  RH  090%=      5-min Rain = 0
KPA1 200941Z 17005KT M06/M08 A3026 RMK A01 T10621077  RH  090%=      5-min Rain = 0
KPA1 200942Z 17005KT M06/M08 A3026 RMK A01 T10621077  RH  090%=      5-min Rain = 0
KPA1 200943Z 17005KT M06/M08 A3026 RMK A01 T10621076  RH  090%=      5-min Rain = 0
KPA1 200944Z 17006KT M06/M08 A3026 RMK A01 T10631077  RH  090%=      5-min Rain = 0
KPA1 200945Z 18006KT M06/M08 A3026 RMK A01 T10631077  RH  090%=      5-min Rain = 0
KPA1 200946Z 18005KT M06/M08 A3026 RMK A01 T10631077  RH  090%=      5-min Rain = 0
KPA1 200947Z 18006KT M06/M08 A3026 RMK A01 T10631077  RH  090%=      5-min Rain = 0
KPA1 200948Z 17006KT M06/M08 A3026 RMK A01 T10631077  RH  089%=      5-min Rain = 0
KPA1 200949Z 17005KT M06/M08 A3026 RMK A01 T10631078  RH  089%=      5-min Rain = 0
KPA1 200950Z 17005KT M06/M08 A3025 RMK A01 T10631078  RH  089%=      5-min Rain = 0
KPA1 200951Z 17006KT M06/M08 A3025 RMK A01 T10631078  RH  090%=      5-min Rain = 0
KPA1 200952Z 17006KT M06/M08 A3025 RMK A01 T10631077  RH  090%=      5-min Rain = 0
KPA1 200953Z 17007KT M06/M08 A3025 RMK A01 T10631077  RH  090%=      5-min Rain = 0
KPA1 200954Z 17007KT M06/M08 A3025 RMK A01 T10631077  RH  090%=      5-min Rain = 0
KPA1 200955Z 17006KT M06/M08 A3025 RMK A01 T10631077  RH  090%=      5-min Rain = 0
KPA1 200956Z 17006KT M06/M08 A3024 RMK A01 T10631077  RH  090%=      5-min Rain = 0
KPA1 200957Z 17006KT M06/M08 A3024 RMK A01 T10621077  RH  090%=      5-min Rain = 0
KPA1 200958Z 17006KT M06/M08 A3024 RMK A01 T10621077  RH  090%=      5-min Rain = 0
KPA1 200959Z 17007KT M06/M08 A3024 RMK A01 T10621076  RH  090%=      5-min Rain = 0
KPA1 201000Z 16007KT M06/M08 A3024 RMK A01 T10611076  RH  090%=      5-min Rain = 0
KPA1 201001Z 16007KT M06/M08 A3024 RMK A01 T10601075  RH  089%=      5-min Rain = 0
KPA1 201002Z 16008KT M06/M08 A3024 RMK A01 T10601075  RH  089%=      5-min Rain = 0
KPA1 201003Z 17008KT M06/M08 A3025 RMK A01 T10601075  RH  089%=      5-min Rain = 0
KPA1 201004Z 17007KT M06/M07 A3024 RMK A01 T10591074  RH  089%=      5-min Rain = 0
KPA1 201005Z 18007KT M06/M07 A3024 RMK A01 T10591074  RH  089%=      5-min Rain = 0
KPA1 201006Z 18007KT M06/M07 A3024 RMK A01 T10581074  RH  089%=      5-min Rain = 0
KPA1 201007Z 18007KT M06/M07 A3024 RMK A01 T10581074  RH  088%=      5-min Rain = 0
KPA1 201008Z 17007KT M06/M07 A3024 RMK A01 T10581074  RH  088%=      5-min Rain = 0
KPA1 201009Z 17006KT M06/M07 A3024 RMK A01 T10581074  RH  088%=      5-min Rain = 0
KPA1 201010Z 17006KT M06/M08 A3024 RMK A01 T10581075  RH  088%=      5-min Rain = 0
KPA1 201011Z 18006KT M06/M08 A3024 RMK A01 T10581075  RH  088%=      5-min Rain = 0
KPA1 201012Z 17006KT M06/M08 A3024 RMK A01 T10591076  RH  088%=      5-min Rain = 0
KPA1 201013Z 18006KT M06/M08 A3024 RMK A01 T10591076  RH  088%=      5-min Rain = 0
KPA1 201014Z 18007KT M06/M08 A3024 RMK A01 T10591076  RH  088%=      5-min Rain = 0
KPA1 201015Z 18007KT M06/M08 A3024 RMK A01 T10591076  RH  088%=      5-min Rain = 0
KPA1 201016Z 18007KT M06/M08 A3024 RMK A01 T10591076  RH  088%=      5-min Rain = 0
KPA1 201017Z 18007KT M06/M08 A3024 RMK A01 T10591075  RH  088%=      5-min Rain = 0
KPA1 201018Z 18007KT M06/M08 A3024 RMK A01 T10591075  RH  088%=      5-min Rain = 0
KPA1 201019Z 18007KT M06/M08 A3024 RMK A01 T10591075  RH  088%=      5-min Rain = 0
KPA1 201020Z 18007KT M06/M08 A3024 RMK A01 T10591076  RH  088%=      5-min Rain = 0
KPA1 201021Z 18007KT M06/M08 A3024 RMK A01 T10591076  RH  088%=      5-min Rain = 0
KPA1 201022Z 18007KT M06/M08 A3024 RMK A01 T10591076  RH  088%=      5-min Rain = 0
KPA1 201023Z 18007KT M06/M08 A3024 RMK A01 T10591076  RH  088%=      5-min Rain = 0
KPA1 201024Z 18008KT M06/M08 A3024 RMK A01 T10591075  RH  088%=      5-min Rain = 0
KPA1 201025Z 18007KT M06/M08 A3024 RMK A01 T10591075  RH  088%=      5-min Rain = 0
KPA1 201026Z 18008KT M06/M08 A3024 RMK A01 T10581075  RH  088%=      5-min Rain = 0
KPA1 201027Z 18008KT M06/M08 A3024 RMK A01 T10591075  RH  088%=      5-min Rain = 0
KPA1 201028Z 19007KT M06/M08 A3024 RMK A01 T10591075  RH  088%=      5-min Rain = 0
KPA1 201029Z 19008KT M06/M07 A3024 RMK A01 T10581074  RH  088%=      5-min Rain = 0
KPA1 201030Z 19008KT M06/M07 A3024 RMK A01 T10581074  RH  088%=      5-min Rain = 0
KPA1 201031Z 19007KT M06/M07 A3024 RMK A01 T10571074  RH  088%=      5-min Rain = 0
KPA1 201032Z 19008KT M06/M07 A3024 RMK A01 T10571073  RH  088%=      5-min Rain = 0
KPA1 201033Z 18008KT M06/M07 A3024 RMK A01 T10561072  RH  088%=      5-min Rain = 0
KPA1 201034Z 18008KT M06/M07 A3024 RMK A01 T10561072  RH  088%=      5-min Rain = 0
KPA1 201035Z 18009KT M06/M07 A3024 RMK A01 T10551072  RH  088%=      5-min Rain = 0
KPA1 201036Z 18008KT M06/M07 A3024 RMK A01 T10551071  RH  088%=      5-min Rain = 0
KPA1 201037Z 18008KT M05/M07 A3024 RMK A01 T10541071  RH  088%=      5-min Rain = 0
KPA1 201038Z 18008KT M05/M07 A3024 RMK A01 T10541071  RH  088%=      5-min Rain = 0
KPA1 201039Z 18008KT M05/M07 A3024 RMK A01 T10531070  RH  088%=      5-min Rain = 0
KPA1 201040Z 18008KT M05/M07 A3024 RMK A01 T10531070  RH  088%=      5-min Rain = 0
KPA1 201041Z 18008KT M05/M07 A3023 RMK A01 T10531070  RH  088%=      5-min Rain = 0
KPA1 201042Z 18008KT M05/M07 A3023 RMK A01 T10521070  RH  088%=      5-min Rain = 0
KPA1 201043Z 18008KT M05/M07 A3023 RMK A01 T10521070  RH  087%=      5-min Rain = 0
KPA1 201044Z 18008KT M05/M07 A3023 RMK A01 T10521070  RH  087%=      5-min Rain = 0
KPA1 201045Z 18008KT M05/M07 A3023 RMK A01 T10521070  RH  087%=      5-min Rain = 0
KPA1 201046Z 18009KT M05/M07 A3023 RMK A01 T10521069  RH  087%=      5-min Rain = 0
KPA1 201047Z 19008KT M05/M07 A3023 RMK A01 T10511069  RH  087%=      5-min Rain = 0
KPA1 201048Z 19008KT M05/M07 A3023 RMK A01 T10511069  RH  087%=      5-min Rain = 0
KPA1 201049Z 18008KT M05/M07 A3023 RMK A01 T10511069  RH  087%=      5-min Rain = 0
KPA1 201050Z 19009KT M05/M07 A3023 RMK A01 T10501068  RH  087%=      5-min Rain = 0
KPA1 201051Z 19008KT M05/M07 A3023 RMK A01 T10501068  RH  087%=      5-min Rain = 0
KPA1 201052Z 19009KT M05/M07 A3023 RMK A01 T10501068  RH  087%=      5-min Rain = 0
KPA1 201053Z 19008KT M05/M07 A3023 RMK A01 T10501068  RH  087%=      5-min Rain = 0
KPA1 201054Z 18009KT M05/M07 A3023 RMK A01 T10491068  RH  087%=      5-min Rain = 0
KPA1 201055Z 19009KT M05/M07 A3023 RMK A01 T10491068  RH  087%=      5-min Rain = 0
KPA1 201056Z 18009KT M05/M07 A3023 RMK A01 T10491068  RH  087%=      5-min Rain = 0
KPA1 201057Z 18009KT M05/M07 A3023 RMK A01 T10501068  RH  087%=      5-min Rain = 0
KPA1 201058Z 18008KT M05/M07 A3023 RMK A01 T10501068  RH  087%=      5-min Rain = 0
KPA1 201059Z 18009KT M05/M07 A3023 RMK A01 T10501068  RH  087%=      5-min Rain = 0
KPA1 201100Z 19009KT M05/M07 A3023 RMK A01 T10501068  RH  087%=      5-min Rain = 0
KPA1 201101Z 19008KT M05/M07 A3023 RMK A01 T10501068  RH  087%=      5-min Rain = 0
KPA1 201102Z 19008KT M05/M07 A3023 RMK A01 T10501068  RH  087%=      5-min Rain = 0
KPA1 201103Z 19009KT M05/M07 A3022 RMK A01 T10511068  RH  088%=      5-min Rain = 0
KPA1 201104Z 19009KT M05/M07 A3022 RMK A01 T10511068  RH  088%=      5-min Rain = 0
KPA1 201105Z 19009KT M05/M07 A3022 RMK A01 T10511068  RH  088%=      5-min Rain = 0
KPA1 201106Z 19010KT M05/M07 A3022 RMK A01 T10511068  RH  088%=      5-min Rain = 0
KPA1 201107Z 19009KT M05/M07 A3022 RMK A01 T10501067  RH  088%=      5-min Rain = 0
KPA1 201108Z 19009KT M05/M07 A3022 RMK A01 T10501068  RH  088%=      5-min Rain = 0
KPA1 201109Z 19010KT M05/M07 A3022 RMK A01 T10501067  RH  088%=      5-min Rain = 0
KPA1 201110Z 19009KT M05/M07 A3022 RMK A01 T10501067  RH  088%=      5-min Rain = 0
KPA1 201111Z 19009KT M05/M07 A3022 RMK A01 T10491066  RH  088%=      5-min Rain = 0
KPA1 201112Z 19010KT M05/M07 A3022 RMK A01 T10501066  RH  088%=      5-min Rain = 0
KPA1 201113Z 19010KT M05/M07 A3022 RMK A01 T10501066  RH  088%=      5-min Rain = 0
KPA1 201114Z 19010KT M05/M07 A3022 RMK A01 T10491066  RH  088%=      5-min Rain = 0
KPA1 201115Z 19010KT M05/M07 A3022 RMK A01 T10491066  RH  088%=      5-min Rain = 0
KPA1 201116Z 19009KT M05/M07 A3022 RMK A01 T10491065  RH  088%=      5-min Rain = 0
KPA1 201117Z 19010KT M05/M07 A3022 RMK A01 T10481065  RH  088%=      5-min Rain = 0
KPA1 201118Z 19009KT M05/M07 A3022 RMK A01 T10481065  RH  088%=      5-min Rain = 0
KPA1 201119Z 19010KT M05/M07 A3022 RMK A01 T10481065  RH  088%=      5-min Rain = 0
KPA1 201120Z 19010KT M05/M06 A3022 RMK A01 T10471064  RH  088%=      5-min Rain = 0
KPA1 201121Z 19010KT M05/M06 A3022 RMK A01 T10471064  RH  088%=      5-min Rain = 0
KPA1 201122Z 19010KT M05/M06 A3022 RMK A01 T10471064  RH  088%=      5-min Rain = 0
KPA1 201123Z 19009KT M05/M06 A3022 RMK A01 T10471063  RH  088%=      5-min Rain = 0
KPA1 201124Z 19010KT M05/M06 A3021 RMK A01 T10461063  RH  088%=      5-min Rain = 0
KPA1 201125Z 19010KT M05/M06 A3021 RMK A01 T10471063  RH  088%=      5-min Rain = 0
KPA1 201126Z 19010KT M05/M06 A3021 RMK A01 T10471063  RH  088%=      5-min Rain = 0
KPA1 201127Z 19010KT M05/M06 A3021 RMK A01 T10461063  RH  088%=      5-min Rain = 0
KPA1 201128Z 19010KT M05/M06 A3021 RMK A01 T10461063  RH  088%=      5-min Rain = 0
KPA1 201129Z 19010KT M05/M06 A3021 RMK A01 T10461062  RH  088%=      5-min Rain = 0
KPA1 201130Z 19010KT M05/M06 A3021 RMK A01 T10451062  RH  088%=      5-min Rain = 0
KPA1 201131Z 19010KT M05/M06 A3021 RMK A01 T10461063  RH  088%=      5-min Rain = 0
KPA1 201132Z 19010KT M05/M06 A3021 RMK A01 T10451062  RH  088%=      5-min Rain = 0
KPA1 201133Z 19010KT M05/M06 A3021 RMK A01 T10451062  RH  088%=      5-min Rain = 0
KPA1 201134Z 19010KT M05/M06 A3021 RMK A01 T10451062  RH  088%=      5-min Rain = 0
KPA1 201135Z 19010KT M05/M06 A3021 RMK A01 T10451062  RH  088%=      5-min Rain = 0
KPA1 201136Z 19010KT M05/M06 A3021 RMK A01 T10451062  RH  088%=      5-min Rain = 0
KPA1 201137Z 19009KT M05/M06 A3021 RMK A01 T10451062  RH  088%=      5-min Rain = 0
KPA1 201138Z 19010KT M05/M06 A3021 RMK A01 T10451062  RH  088%=      5-min Rain = 0
KPA1 201139Z 19009KT M05/M06 A3021 RMK A01 T10451062  RH  088%=      5-min Rain = 0
KPA1 201140Z 20009KT M05/M06 A3021 RMK A01 T10451062  RH  088%=      5-min Rain = 0
KPA1 201141Z 19010KT M04/M06 A3021 RMK A01 T10441062  RH  088%=      5-min Rain = 0
KPA1 201142Z 19009KT M05/M06 A3021 RMK A01 T10451062  RH  088%=      5-min Rain = 0
KPA1 201143Z 19009KT M05/M06 A3021 RMK A01 T10451062  RH  088%=      5-min Rain = 0
KPA1 201144Z 19009KT M05/M06 A3021 RMK A01 T10451062  RH  088%=      5-min Rain = 0
KPA1 201145Z 19010KT M05/M06 A3021 RMK A01 T10461063  RH  088%=      5-min Rain = 0
KPA1 201146Z 19010KT M05/M06 A3021 RMK A01 T10461063  RH  088%=      5-min Rain = 0
KPA1 201147Z 19009KT M05/M06 A3021 RMK A01 T10461063  RH  088%=      5-min Rain = 0
KPA1 201148Z 19010KT M05/M06 A3021 RMK A01 T10461063  RH  088%=      5-min Rain = 0
KPA1 201149Z 19010KT M05/M06 A3021 RMK A01 T10461063  RH  088%=      5-min Rain = 0
KPA1 201150Z 19010KT M05/M06 A302 RMK A01 T10471063  RH  088%=      5-min Rain = 0
KPA1 201151Z 19010KT M05/M06 A302 RMK A01 T10471063  RH  088%=      5-min Rain = 0
KPA1 201152Z 19009KT M05/M06 A302 RMK A01 T10471063  RH  088%=      5-min Rain = 0
KPA1 201153Z 19009KT M05/M06 A302 RMK A01 T10471064  RH  088%=      5-min Rain = 0
KPA1 201154Z 19009KT M05/M06 A302 RMK A01 T10481064  RH  088%=      5-min Rain = 0
KPA1 201155Z 19009KT M05/M07 A302 RMK A01 T10481065  RH  088%=      5-min Rain = 0
KPA1 201156Z 19009KT M05/M07 A302 RMK A01 T10491065  RH  089%=      5-min Rain = 0
KPA1 201157Z 19010KT M05/M07 A302 RMK A01 T10491065  RH  089%=      5-min Rain = 0
KPA1 201158Z 19009KT M05/M07 A302 RMK A01 T10491065  RH  089%=      5-min Rain = 0
KPA1 201159Z 19009KT M05/M06 A302 RMK A01 T10491064  RH  089%=      5-min Rain = 0
KPA1 201200Z 19010KT M05/M06 A302 RMK A01 T10491064  RH  089%=      5-min Rain = 0
KPA1 201201Z 19010KT M05/M07 A302 RMK A01 T10491065  RH  089%=      5-min Rain = 0
KPA1 201202Z 19010KT M05/M07 A302 RMK A01 T10491065  RH  089%=      5-min Rain = 0
KPA1 201203Z 19010KT M05/M07 A302 RMK A01 T10491065  RH  089%=      5-min Rain = 0
KPA1 201204Z 19010KT M05/M06 A302 RMK A01 T10491064  RH  089%=      5-min Rain = 0
KPA1 201205Z 19010KT M05/M06 A302 RMK A01 T10491064  RH  089%=      5-min Rain = 0
KPA1 201206Z 19010KT M05/M07 A302 RMK A01 T10491065  RH  089%=      5-min Rain = 0
KPA1 201207Z 19010KT M05/M06 A302 RMK A01 T10491064  RH  089%=      5-min Rain = 0
KPA1 201208Z 19010KT M05/M06 A3019 RMK A01 T10491064  RH  089%=      5-min Rain = 0
KPA1 201209Z 20011KT M05/M06 A3019 RMK A01 T10491064  RH  089%=      5-min Rain = 0
KPA1 201210Z 20010KT M05/M06 A3019 RMK A01 T10481063  RH  089%=      5-min Rain = 0
KPA1 201211Z 19010KT M05/M06 A3019 RMK A01 T10481063  RH  089%=      5-min Rain = 0
KPA1 201212Z 19010KT M05/M06 A3019 RMK A01 T10481064  RH  089%=      5-min Rain = 0
KPA1 201213Z 19010KT M05/M06 A3019 RMK A01 T10481063  RH  089%=      5-min Rain = 0
KPA1 201214Z 19010KT M05/M06 A3019 RMK A01 T10481063  RH  089%=      5-min Rain = 0
KPA1 201215Z 19011KT M05/M06 A3019 RMK A01 T10481063  RH  089%=      5-min Rain = 0
KPA1 201216Z 19011KT M05/M06 A3019 RMK A01 T10481063  RH  090%=      5-min Rain = 0
KPA1 201217Z 19011KT M05/M06 A3019 RMK A01 T10481063  RH  090%=      5-min Rain = 0
KPA1 201218Z 19011KT M05/M06 A3019 RMK A01 T10481062  RH  090%=      5-min Rain = 0
KPA1 201219Z 19011KT M05/M06 A3019 RMK A01 T10471062  RH  090%=      5-min Rain = 0
KPA1 201220Z 19011KT M05/M06 A3019 RMK A01 T10471062  RH  090%=      5-min Rain = 0
KPA1 201221Z 19012KT M05/M06 A3019 RMK A01 T10461061  RH  089%=      5-min Rain = 0
KPA1 201222Z 19011KT M05/M06 A3019 RMK A01 T10461061  RH  089%=      5-min Rain = 0
KPA1 201223Z 19012KT M05/M06 A3019 RMK A01 T10461061  RH  089%=      5-min Rain = 0
KPA1 201224Z 20011KT M05/M06 A3019 RMK A01 T10461061  RH  089%=      5-min Rain = 0
KPA1 201225Z 20011KT M05/M06 A3019 RMK A01 T10451061  RH  089%=      5-min Rain = 0
KPA1 201226Z 20011KT M05/M06 A3019 RMK A01 T10451061  RH  089%=      5-min Rain = 0
KPA1 201227Z 20010KT M05/M06 A3019 RMK A01 T10451060  RH  089%=      5-min Rain = 0
KPA1 201228Z 20010KT M04/M06 A3019 RMK A01 T10441060  RH  089%=      5-min Rain = 0
KPA1 201229Z 20011KT M04/M06 A3019 RMK A01 T10441060  RH  089%=      5-min Rain = 0
KPA1 201230Z 20011KT M04/M06 A3019 RMK A01 T10441060  RH  089%=      5-min Rain = 0
KPA1 201231Z 20010KT M04/M06 A3019 RMK A01 T10441061  RH  088%=      5-min Rain = 0
KPA1 201232Z 20009KT M04/M06 A3019 RMK A01 T10441061  RH  088%=      5-min Rain = 0
KPA1 201233Z 20009KT M04/M06 A3019 RMK A01 T10441061  RH  088%=      5-min Rain = 0
KPA1 201234Z 20009KT M04/M06 A3019 RMK A01 T10441061  RH  088%=      5-min Rain = 0
KPA1 201235Z 19009KT M04/M06 A3019 RMK A01 T10441061  RH  088%=      5-min Rain = 0
KPA1 201236Z 20009KT M04/M06 A3019 RMK A01 T10441060  RH  088%=      5-min Rain = 0
KPA1 201237Z 19009KT M04/M06 A3019 RMK A01 T10431060  RH  088%=      5-min Rain = 0
KPA1 201238Z 19009KT M04/M06 A3019 RMK A01 T10431060  RH  088%=      5-min Rain = 0
KPA1 201239Z 19008KT M04/M06 A3019 RMK A01 T10431060  RH  088%=      5-min Rain = 0
KPA1 201240Z 19007KT M04/M06 A3019 RMK A01 T10431060  RH  088%=      5-min Rain = 0
KPA1 201241Z 19007KT M04/M06 A3019 RMK A01 T10431060  RH  088%=      5-min Rain = 0
KPA1 201242Z 19008KT M04/M06 A3019 RMK A01 T10431060  RH  088%=      5-min Rain = 0
KPA1 201243Z 19007KT M04/M06 A3019 RMK A01 T10431060  RH  088%=      5-min Rain = 0
KPA1 201244Z 20008KT M04/M06 A3019 RMK A01 T10431060  RH  088%=      5-min Rain = 0
KPA1 201245Z 19008KT M04/M06 A3019 RMK A01 T10431060  RH  088%=      5-min Rain = 0
KPA1 201246Z 19009KT M04/M06 A3019 RMK A01 T10431060  RH  088%=      5-min Rain = 0
KPA1 201247Z 19009KT M04/M06 A3019 RMK A01 T10431060  RH  088%=      5-min Rain = 0
KPA1 201248Z 19009KT M04/M06 A3019 RMK A01 T10421059  RH  088%=      5-min Rain = 0
KPA1 201249Z 19010KT M04/M06 A3019 RMK A01 T10421059  RH  088%=      5-min Rain = 0
KPA1 201250Z 19010KT M04/M06 A3019 RMK A01 T10411059  RH  088%=      5-min Rain = 0
KPA1 201251Z 19010KT M04/M06 A3019 RMK A01 T10411059  RH  088%=      5-min Rain = 0
KPA1 201252Z 19009KT M04/M06 A3019 RMK A01 T10411058  RH  088%=      5-min Rain = 0
KPA1 201253Z 19009KT M04/M06 A3019 RMK A01 T10421059  RH  088%=      5-min Rain = 0
KPA1 201254Z 19009KT M04/M06 A3019 RMK A01 T10421059  RH  088%=      5-min Rain = 0
KPA1 201255Z 19009KT M04/M06 A3019 RMK A01 T10411058  RH  088%=      5-min Rain = 0
KPA1 201256Z 19008KT M04/M06 A3019 RMK A01 T10411058  RH  088%=      5-min Rain = 0
KPA1 201257Z 19008KT M04/M06 A302 RMK A01 T10411058  RH  088%=      5-min Rain = 0
KPA1 201258Z 19008KT M04/M06 A302 RMK A01 T10411058  RH  088%=      5-min Rain = 0
KPA1 201259Z 19008KT M04/M06 A302 RMK A01 T10411058  RH  088%=      5-min Rain = 0
KPA1 201300Z 19007KT M04/M06 A302 RMK A01 T10411058  RH  088%=      5-min Rain = 0
KPA1 201301Z 19007KT M04/M06 A302 RMK A01 T10411058  RH  088%=      5-min Rain = 0
KPA1 201302Z 19007KT M04/M06 A302 RMK A01 T10411058  RH  088%=      5-min Rain = 0
KPA1 201303Z 19007KT M04/M06 A302 RMK A01 T10401057  RH  088%=      5-min Rain = 0
KPA1 201304Z 19006KT M04/M06 A302 RMK A01 T10411058  RH  088%=      5-min Rain = 0
KPA1 201305Z 19006KT M04/M06 A302 RMK A01 T10411058  RH  088%=      5-min Rain = 0
KPA1 201306Z 19005KT M04/M06 A302 RMK A01 T10401058  RH  088%=      5-min Rain = 0
KPA1 201307Z 19006KT M04/M06 A302 RMK A01 T10411058  RH  088%=      5-min Rain = 0
KPA1 201308Z 19005KT M04/M06 A302 RMK A01 T10411058  RH  088%=      5-min Rain = 0
KPA1 201309Z 19006KT M04/M06 A3021 RMK A01 T10421059  RH  088%=      5-min Rain = 0
KPA1 201310Z 19006KT M04/M06 A3021 RMK A01 T10411058  RH  088%=      5-min Rain = 0
KPA1 201311Z 19006KT M04/M06 A3021 RMK A01 T10421058  RH  088%=      5-min Rain = 0
KPA1 201312Z 19006KT M04/M06 A3021 RMK A01 T10411058  RH  088%=      5-min Rain = 0
KPA1 201313Z 19006KT M04/M06 A3021 RMK A01 T10411058  RH  088%=      5-min Rain = 0
KPA1 201314Z 19007KT M04/M06 A3021 RMK A01 T10421059  RH  088%=      5-min Rain = 0
KPA1 201315Z 19007KT M04/M06 A3021 RMK A01 T10421059  RH  088%=      5-min Rain = 0
KPA1 201316Z 19008KT M04/M06 A3021 RMK A01 T10411058  RH  088%=      5-min Rain = 0
KPA1 201317Z 19008KT M04/M06 A3021 RMK A01 T10411058  RH  088%=      5-min Rain = 0
KPA1 201318Z 19009KT M04/M06 A3021 RMK A01 T10411058  RH  088%=      5-min Rain = 0
KPA1 201319Z 19009KT M04/M06 A3021 RMK A01 T10401057  RH  088%=      5-min Rain = 0
KPA1 201320Z 19009KT M04/M06 A3021 RMK A01 T10401057  RH  088%=      5-min Rain = 0
KPA1 201321Z 19008KT M04/M06 A302 RMK A01 T10401057  RH  088%=      5-min Rain = 0
KPA1 201322Z 19007KT M04/M06 A302 RMK A01 T10401057  RH  088%=      5-min Rain = 0
KPA1 201323Z 19008KT M04/M06 A302 RMK A01 T10401057  RH  088%=      5-min Rain = 0
KPA1 201324Z 19008KT M04/M06 A3021 RMK A01 T10401057  RH  088%=      5-min Rain = 0
KPA1 201325Z 19008KT M04/M06 A3021 RMK A01 T10401057  RH  088%=      5-min Rain = 0
KPA1 201326Z 19008KT M04/M06 A3021 RMK A01 T10401057  RH  088%=      5-min Rain = 0
KPA1 201327Z 19008KT M04/M06 A3021 RMK A01 T10391056  RH  088%=      5-min Rain = 0
KPA1 201328Z 19007KT M04/M06 A3021 RMK A01 T10391057  RH  088%=      5-min Rain = 0
KPA1 201329Z 19008KT M04/M06 A3021 RMK A01 T10391057  RH  088%=      5-min Rain = 0
KPA1 201330Z 19008KT M04/M06 A3021 RMK A01 T10391057  RH  088%=      5-min Rain = 0
KPA1 201331Z 19008KT M04/M06 A3021 RMK A01 T10391057  RH  088%=      5-min Rain = 0
KPA1 201332Z 19008KT M04/M06 A3021 RMK A01 T10391057  RH  088%=      5-min Rain = 0
KPA1 201333Z 19008KT M04/M06 A3021 RMK A01 T10391057  RH  088%=      5-min Rain = 0
KPA1 201334Z 19008KT M04/M06 A3021 RMK A01 T10401058  RH  087%=      5-min Rain = 0
KPA1 201335Z 19008KT M04/M06 A302 RMK A01 T10401057  RH  088%=      5-min Rain = 0
KPA1 201336Z 19008KT M04/M06 A302 RMK A01 T10401057  RH  088%=      5-min Rain = 0
KPA1 201337Z 19009KT M04/M06 A302 RMK A01 T10401057  RH  088%=      5-min Rain = 0
KPA1 201338Z 19009KT M04/M06 A302 RMK A01 T10401057  RH  088%=      5-min Rain = 0
KPA1 201339Z 19009KT M04/M06 A302 RMK A01 T10391056  RH  088%=      5-min Rain = 0
KPA1 201340Z 19009KT M04/M06 A302 RMK A01 T10391057  RH  088%=      5-min Rain = 0
KPA1 201341Z 19009KT M04/M06 A302 RMK A01 T10381056  RH  087%=      5-min Rain = 0
KPA1 201342Z 19009KT M04/M06 A302 RMK A01 T10381056  RH  087%=      5-min Rain = 0
KPA1 201343Z 19009KT M04/M06 A302 RMK A01 T10371056  RH  087%=      5-min Rain = 0
KPA1 201344Z 19008KT M04/M06 A302 RMK A01 T10371055  RH  087%=      5-min Rain = 0
KPA1 201345Z 19007KT M04/M06 A302 RMK A01 T10371056  RH  087%=      5-min Rain = 0
KPA1 201346Z 20007KT M04/M06 A302 RMK A01 T10381057  RH  087%=      5-min Rain = 0
KPA1 201347Z 20008KT M04/M06 A302 RMK A01 T10381057  RH  087%=      5-min Rain = 0
KPA1 201348Z 20008KT M04/M06 A302 RMK A01 T10391057  RH  087%=      5-min Rain = 0
KPA1 201349Z 20008KT M04/M06 A302 RMK A01 T10381057  RH  087%=      5-min Rain = 0
KPA1 201350Z 20009KT M04/M06 A302 RMK A01 T10371056  RH  087%=      5-min Rain = 0
KPA1 201351Z 20009KT M04/M06 A302 RMK A01 T10371056  RH  087%=      5-min Rain = 0
KPA1 201352Z 20008KT M04/M06 A302 RMK A01 T10371056  RH  087%=      5-min Rain = 0
KPA1 201353Z 20008KT M04/M06 A302 RMK A01 T10371057  RH  086%=      5-min Rain = 0
KPA1 201354Z 20008KT M04/M06 A302 RMK A01 T10381057  RH  087%=      5-min Rain = 0
KPA1 201355Z 20008KT M04/M06 A302 RMK A01 T10381057  RH  087%=      5-min Rain = 0
KPA1 201356Z 20008KT M04/M06 A302 RMK A01 T10381057  RH  087%=      5-min Rain = 0
KPA1 201357Z 20008KT M04/M06 A302 RMK A01 T10381056  RH  087%=      5-min Rain = 0
KPA1 201358Z 20009KT M04/M06 A302 RMK A01 T10381057  RH  087%=      5-min Rain = 0
KPA1 201359Z 20008KT M04/M06 A302 RMK A01 T10371056  RH  087%=      5-min Rain = 0
KPA1 201400Z 20008KT M04/M06 A302 RMK A01 T10371056  RH  087%=      5-min Rain = 0
KPA1 201401Z 20008KT M04/M06 A302 RMK A01 T10371056  RH  087%=      5-min Rain = 0
KPA1 201402Z 19008KT M04/M06 A302 RMK A01 T10371056  RH  087%=      5-min Rain = 0
KPA1 201403Z 19008KT M04/M06 A302 RMK A01 T10371056  RH  087%=      5-min Rain = 0
KPA1 201404Z 20009KT M04/M06 A302 RMK A01 T10371056  RH  087%=      5-min Rain = 0
KPA1 201405Z 20009KT M04/M06 A302 RMK A01 T10371056  RH  087%=      5-min Rain = 0
KPA1 201406Z 20009KT M04/M06 A302 RMK A01 T10361055  RH  087%=      5-min Rain = 0
KPA1 201407Z 20010KT M04/M05 A302 RMK A01 T10361054  RH  087%=      5-min Rain = 0
KPA1 201408Z 20010KT M04/M05 A3019 RMK A01 T10351054  RH  087%=      5-min Rain = 0
KPA1 201409Z 20010KT M03/M05 A3019 RMK A01 T10341054  RH  087%=      5-min Rain = 0
KPA1 201410Z 20010KT M03/M05 A3019 RMK A01 T10341053  RH  086%=      5-min Rain = 0
KPA1 201411Z 20011KT M03/M05 A3019 RMK A01 T10331053  RH  086%=      5-min Rain = 0
KPA1 201412Z 20010KT M03/M05 A3019 RMK A01 T10331053  RH  086%=      5-min Rain = 0
KPA1 201413Z 20011KT M03/M05 A3019 RMK A01 T10321053  RH  086%=      5-min Rain = 0
KPA1 201414Z 20011KT M03/M05 A3019 RMK A01 T10331053  RH  086%=      5-min Rain = 0
KPA1 201415Z 20011KT M03/M05 A3019 RMK A01 T10321053  RH  086%=      5-min Rain = 0
KPA1 201416Z 20010KT M03/M05 A3019 RMK A01 T10321053  RH  086%=      5-min Rain = 0
KPA1 201417Z 20010KT M03/M05 A3019 RMK A01 T10321052  RH  086%=      5-min Rain = 0
KPA1 201418Z 20009KT M03/M05 A3019 RMK A01 T10321052  RH  086%=      5-min Rain = 0
KPA1 201419Z 20010KT M03/M05 A3019 RMK A01 T10321052  RH  086%=      5-min Rain = 0
KPA1 201420Z 20009KT M03/M05 A3019 RMK A01 T10321052  RH  086%=      5-min Rain = 0
KPA1 201421Z 20010KT M03/M05 A3019 RMK A01 T10311051  RH  086%=      5-min Rain = 0
KPA1 201422Z 20010KT M03/M05 A3019 RMK A01 T10301050  RH  086%=      5-min Rain = 0
KPA1 201423Z 20009KT M03/M05 A3019 RMK A01 T10301051  RH  086%=      5-min Rain = 0
KPA1 201424Z 20011KT M03/M05 A3019 RMK A01 T10301051  RH  086%=      5-min Rain = 0
KPA1 201425Z 20010KT M03/M05 A3019 RMK A01 T10291050  RH  086%=      5-min Rain = 0
KPA1 201426Z 20011KT M03/M05 A3019 RMK A01 T10291050  RH  086%=      5-min Rain = 0
KPA1 201427Z 20011KT M03/M05 A3019 RMK A01 T10281049  RH  085%=      5-min Rain = 0
KPA1 201428Z 20011KT M03/M05 A3019 RMK A01 T10281049  RH  085%=      5-min Rain = 0
KPA1 201429Z 20011KT M03/M05 A3019 RMK A01 T10281049  RH  085%=      5-min Rain = 0
KPA1 201430Z 20011KT M03/M05 A3019 RMK A01 T10281049  RH  085%=      5-min Rain = 0
KPA1 201431Z 20013KT M03/M05 A3019 RMK A01 T10271049  RH  085%=      5-min Rain = 0
KPA1 201432Z 20012KT M03/M05 A3019 RMK A01 T10261048  RH  085%=      5-min Rain = 0
KPA1 201433Z 20012KT M03/M05 A3019 RMK A01 T10261048  RH  085%=      5-min Rain = 0
KPA1 201434Z 20012KT M03/M05 A3019 RMK A01 T10261048  RH  085%=      5-min Rain = 0
KPA1 201435Z 20012KT M03/M05 A3019 RMK A01 T10251047  RH  085%=      5-min Rain = 0
KPA1 201436Z 20013KT M03/M05 A3018 RMK A01 T10251047  RH  085%=      5-min Rain = 0
KPA1 201437Z 20013KT M02/M05 A3018 RMK A01 T10241047  RH  084%=      5-min Rain = 0
KPA1 201438Z 20013KT M02/M05 A3018 RMK A01 T10241047  RH  084%=      5-min Rain = 0
KPA1 201439Z 20012KT M02/M05 A3018 RMK A01 T10241047  RH  084%=      5-min Rain = 0
KPA1 201440Z 20012KT M02/M05 A3018 RMK A01 T10231047  RH  084%=      5-min Rain = 0
KPA1 201441Z 20012KT M02/M05 A3018 RMK A01 T10231046  RH  084%=      5-min Rain = 0
KPA1 201442Z 20012KT M02/M05 A3018 RMK A01 T10231046  RH  084%=      5-min Rain = 0
KPA1 201443Z 21014KT M02/M05 A3018 RMK A01 T10221045  RH  084%=      5-min Rain = 0
KPA1 201444Z 20013KT M02/M05 A3018 RMK A01 T10221045  RH  084%=      5-min Rain = 0
KPA1 201445Z 20014KT M02/M05 A3018 RMK A01 T10221045  RH  084%=      5-min Rain = 0
KPA1 201446Z 21014KT M02/M05 A3018 RMK A01 T10211045  RH  084%=      5-min Rain = 0
KPA1 201447Z 20014KT M02/M04 A3018 RMK A01 T10211044  RH  084%=      5-min Rain = 0
KPA1 201448Z 20014KT M02/M04 A3018 RMK A01 T10211044  RH  084%=      5-min Rain = 0
KPA1 201449Z 20016KT M02/M04 A3018 RMK A01 T10201044  RH  084%=      5-min Rain = 0
KPA1 201450Z 20014KT M02/M04 A3018 RMK A01 T10191044  RH  083%=      5-min Rain = 0
KPA1 201451Z 20013KT M02/M04 A3018 RMK A01 T10191043  RH  083%=      5-min Rain = 0
KPA1 201452Z 20014KT M02/M04 A3018 RMK A01 T10191042  RH  084%=      5-min Rain = 0
KPA1 201453Z 20014KT M02/M04 A3018 RMK A01 T10181042  RH  084%=      5-min Rain = 0
KPA1 201454Z 20014KT M02/M04 A3018 RMK A01 T10181041  RH  084%=      5-min Rain = 0
KPA1 201455Z 20016KT M02/M04 A3018 RMK A01 T10171041  RH  084%=      5-min Rain = 0
KPA1 201456Z 20017KT M02/M04 A3017 RMK A01 T10161041  RH  083%=      5-min Rain = 0
KPA1 201457Z 20016KT M02/M04 A3017 RMK A01 T10151041  RH  083%=      5-min Rain = 0
KPA1 201458Z 20016KT M02/M04 A3017 RMK A01 T10151040  RH  083%=      5-min Rain = 0
KPA1 201459Z 20015KT M01/M04 A3017 RMK A01 T10141040  RH  083%=      5-min Rain = 0
KPA1 201500Z 21017KT M01/M04 A3017 RMK A01 T10141039  RH  083%=      5-min Rain = 0
KPA1 201501Z 20017KT M01/M04 A3017 RMK A01 T10131039  RH  083%=      5-min Rain = 0
KPA1 201502Z 20016KT M01/M04 A3017 RMK A01 T10121038  RH  082%=      5-min Rain = 0
KPA1 201503Z 21016KT M01/M04 A3017 RMK A01 T10121038  RH  082%=      5-min Rain = 0
KPA1 201504Z 20018KT M01/M04 A3017 RMK A01 T10111038  RH  082%=      5-min Rain = 0
KPA1 201505Z 20018KT M01/M04 A3017 RMK A01 T10101038  RH  082%=      5-min Rain = 0
KPA1 201506Z 21018G23KT M01/M04 A3017 RMK A01 T10101038  RH  081%=      5-min Rain = 0
KPA1 201507Z 21019KT M01/M04 A3017 RMK A01 T10091037  RH  081%=      5-min Rain = 0
KPA1 201508Z 21018KT M01/M04 A3017 RMK A01 T10081037  RH  081%=      5-min Rain = 0
KPA1 201509Z 21019KT M01/M04 A3017 RMK A01 T10071037  RH  080%=      5-min Rain = 0
KPA1 201510Z 20017KT M01/M04 A3017 RMK A01 T10071037  RH  080%=      5-min Rain = 0
KPA1 201511Z 20016KT M01/M04 A3017 RMK A01 T10061036  RH  080%=      5-min Rain = 0
KPA1 201512Z 20016G21KT M01/M04 A3016 RMK A01 T10061036  RH  080%=      5-min Rain = 0
KPA1 201513Z 20018KT M01/M04 A3016 RMK A01 T10051036  RH  080%=      5-min Rain = 0
KPA1 201514Z 20020KT M01/M04 A3016 RMK A01 T10051036  RH  080%=      5-min Rain = 0
KPA1 201515Z 21018KT M00/M04 A3016 RMK A01 T10041036  RH  079%=      5-min Rain = 0
KPA1 201516Z 21019KT M00/M04 A3016 RMK A01 T10031035  RH  079%=      5-min Rain = 0
KPA1 201517Z 21019KT M00/M04 A3017 RMK A01 T10031035  RH  079%=      5-min Rain = 0
KPA1 201518Z 21019KT M00/M04 A3016 RMK A01 T10021035  RH  078%=      5-min Rain = 0
KPA1 201519Z 21017KT M00/M03 A3017 RMK A01 T10011034  RH  078%=      5-min Rain = 0
KPA1 201520Z 21017KT M00/M03 A3017 RMK A01 T10011034  RH  078%=      5-min Rain = 0
KPA1 201521Z 21016KT 00/03 A3017 RMK A01 T00-00-33  RH  079%=      5-min Rain = 0
KPA1 201522Z 21018KT 00/M03 A3017 RMK A01 T00011032  RH  079%=      5-min Rain = 0
KPA1 201523Z 21018KT 00/M03 A3017 RMK A01 T00011032  RH  078%=      5-min Rain = 0
KPA1 201524Z 21017KT 00/M03 A3017 RMK A01 T00021031  RH  078%=      5-min Rain = 0
KPA1 201525Z 21019KT 00/M03 A3017 RMK A01 T00031030  RH  078%=      5-min Rain = 0
KPA1 201526Z 21019KT 00/M03 A3017 RMK A01 T00041031  RH  078%=      5-min Rain = 0
KPA1 201527Z 21018KT 01/M03 A3017 RMK A01 T00051030  RH  077%=      5-min Rain = 0
KPA1 201528Z 21020KT 01/M03 A3016 RMK A01 T00051030  RH  077%=      5-min Rain = 0
KPA1 201529Z 21021KT 01/M03 A3016 RMK A01 T00061030  RH  077%=      5-min Rain = 0
KPA1 201530Z 21019G25KT 01/M03 A3016 RMK A01 T00071030  RH  076%=      5-min Rain = 0
KPA1 201531Z 21020KT 01/M03 A3016 RMK A01 T00071030  RH  076%=      5-min Rain = 0
KPA1 201532Z 21021KT 01/M03 A3016 RMK A01 T00071030  RH  076%=      5-min Rain = 0
KPA1 201533Z 21019KT 01/M03 A3016 RMK A01 T00081030  RH  076%=      5-min Rain = 0
KPA1 201534Z 21020KT 01/M03 A3016 RMK A01 T00081029  RH  076%=      5-min Rain = 0
KPA1 201535Z 21020KT 01/M03 A3016 RMK A01 T00091028  RH  076%=      5-min Rain = 0
KPA1 201536Z 21019G25KT 01/M03 A3016 RMK A01 T00091029  RH  075%=      5-min Rain = 0
KPA1 201537Z 22020G25KT 01/M03 A3016 RMK A01 T00101029  RH  075%=      5-min Rain = 0
KPA1 201538Z 22022KT 01/M03 A3016 RMK A01 T00111029  RH  075%=      5-min Rain = 0
KPA1 201539Z 21021KT 01/M03 A3016 RMK A01 T00111030  RH  074%=      5-min Rain = 0
KPA1 201540Z 21020KT 01/M03 A3016 RMK A01 T00111029  RH  075%=      5-min Rain = 0
KPA1 201541Z 21019KT 01/M03 A3016 RMK A01 T00111029  RH  075%=      5-min Rain = 0
KPA1 201542Z 21019KT 01/M03 A3016 RMK A01 T00111029  RH  075%=      5-min Rain = 0
KPA1 201543Z 21016KT 01/M03 A3016 RMK A01 T00121027  RH  075%=      5-min Rain = 0
KPA1 201544Z 21017KT 01/M03 A3016 RMK A01 T00121026  RH  075%=      5-min Rain = 0
KPA1 201545Z 21017KT 01/M03 A3016 RMK A01 T00131026  RH  075%=      5-min Rain = 0
KPA1 201546Z 22020KT 01/M03 A3016 RMK A01 T00131027  RH  075%=      5-min Rain = 0
KPA1 201547Z 21021G26KT 01/M03 A3016 RMK A01 T00141028  RH  074%=      5-min Rain = 0
KPA1 201548Z 22020KT 01/M03 A3016 RMK A01 T00141029  RH  073%=      5-min Rain = 0
KPA1 201549Z 21019KT 02/M03 A3016 RMK A01 T00151028  RH  073%=      5-min Rain = 0
KPA1 201550Z 21019KT 02/M03 A3016 RMK A01 T00151028  RH  073%=      5-min Rain = 0
KPA1 201551Z 21017KT 02/M03 A3016 RMK A01 T00161027  RH  073%=      5-min Rain = 0
KPA1 201552Z 21017KT 02/M03 A3016 RMK A01 T00161025  RH  074%=      5-min Rain = 0
KPA1 201553Z 21017KT 02/M03 A3016 RMK A01 T00171025  RH  074%=      5-min Rain = 0
KPA1 201554Z 21017KT 02/M03 A3016 RMK A01 T00171026  RH  073%=      5-min Rain = 0
KPA1 201555Z 21020KT 02/M03 A3016 RMK A01 T00171025  RH  073%=      5-min Rain = 0
KPA1 201556Z 21018KT 02/M03 A3016 RMK A01 T00181026  RH  072%=      5-min Rain = 0
KPA1 201557Z 21017KT 02/M03 A3016 RMK A01 T00191025  RH  073%=      5-min Rain = 0
KPA1 201558Z 21019G24KT 02/M03 A3015 RMK A01 T00191025  RH  072%=      5-min Rain = 0
KPA1 201559Z 21019KT 02/M03 A3015 RMK A01 T00201026  RH  071%=      5-min Rain = 0
KPA1 201600Z 22017KT 02/M03 A3016 RMK A01 T00211025  RH  072%=      5-min Rain = 0
KPA1 201601Z 22019KT 02/M02 A3016 RMK A01 T00221024  RH  072%=      5-min Rain = 0
KPA1 201602Z 22017KT 02/M03 A3016 RMK A01 T00221025  RH  071%=      5-min Rain = 0
KPA1 201603Z 21019KT 02/M03 A3016 RMK A01 T00231025  RH  071%=      5-min Rain = 0
KPA1 201604Z 21019KT 02/M03 A3016 RMK A01 T00241025  RH  070%=      5-min Rain = 0
KPA1 201605Z 21019KT 02/M03 A3016 RMK A01 T00241025  RH  070%=      5-min Rain = 0
KPA1 201606Z 22017KT 03/M02 A3016 RMK A01 T00251024  RH  070%=      5-min Rain = 0
KPA1 201607Z 21019KT 03/M02 A3016 RMK A01 T00261023  RH  070%=      5-min Rain = 0
KPA1 201608Z 21016KT 03/M02 A3016 RMK A01 T00271023  RH  070%=      5-min Rain = 0
KPA1 201609Z 21016KT 03/M02 A3016 RMK A01 T00281021  RH  070%=      5-min Rain = 0
KPA1 201610Z 21018KT 03/M02 A3016 RMK A01 T00301021  RH  069%=      5-min Rain = 0
KPA1 201611Z 21017KT 03/M02 A3016 RMK A01 T00301023  RH  068%=      5-min Rain = 0
KPA1 201612Z 22017KT 03/M02 A3016 RMK A01 T00301023  RH  068%=      5-min Rain = 0
KPA1 201613Z 22017KT 03/M02 A3016 RMK A01 T00321021  RH  068%=      5-min Rain = 0
KPA1 201614Z 22019G25KT 03/M02 A3016 RMK A01 T00331021  RH  068%=      5-min Rain = 0
KPA1 201615Z 22023KT 03/M03 A3016 RMK A01 T00331025  RH  066%=      5-min Rain = 0
KPA1 201616Z 22021KT 03/M03 A3016 RMK A01 T00311027  RH  066%=      5-min Rain = 0
KPA1 201617Z 22017G23KT 03/M03 A3016 RMK A01 T00301027  RH  066%=      5-min Rain = 0
KPA1 201618Z 22019KT 03/M03 A3016 RMK A01 T00311025  RH  067%=      5-min Rain = 0
KPA1 201619Z 21020KT 03/M02 A3016 RMK A01 T00321024  RH  066%=      5-min Rain = 0
KPA1 201620Z 22018KT 03/M03 A3016 RMK A01 T00321025  RH  066%=      5-min Rain = 0
KPA1 201621Z 22020KT 03/M02 A3016 RMK A01 T00331024  RH  066%=      5-min Rain = 0
KPA1 201622Z 22020KT 03/M03 A3016 RMK A01 T00341026  RH  065%=      5-min Rain = 0
KPA1 201623Z 22020KT 03/M02 A3016 RMK A01 T00341024  RH  065%=      5-min Rain = 0
KPA1 201624Z 22019G24KT 03/M03 A3016 RMK A01 T00341025  RH  065%=      5-min Rain = 0
KPA1 201625Z 22020KT 04/M02 A3016 RMK A01 T00351024  RH  065%=      5-min Rain = 0
KPA1 201626Z 22021KT 04/M02 A3016 RMK A01 T00361024  RH  065%=      5-min Rain = 0
KPA1 201627Z 22019KT 04/M03 A3016 RMK A01 T00361026  RH  064%=      5-min Rain = 0
KPA1 201628Z 22020KT 04/M03 A3016 RMK A01 T00371025  RH  064%=      5-min Rain = 0
KPA1 201629Z 22021KT 04/M03 A3016 RMK A01 T00371026  RH  063%=      5-min Rain = 0
KPA1 201630Z 22020KT 04/M03 A3016 RMK A01 T00381026  RH  063%=      5-min Rain = 0
KPA1 201631Z 22015KT 04/M03 A3016 RMK A01 T00391025  RH  063%=      5-min Rain = 0
KPA1 201632Z 22016KT 04/M02 A3016 RMK A01 T00401023  RH  063%=      5-min Rain = 0
KPA1 201633Z 22019KT 04/M02 A3016 RMK A01 T00411024  RH  063%=      5-min Rain = 0
KPA1 201634Z 22018KT 04/M03 A3016 RMK A01 T00411025  RH  062%=      5-min Rain = 0
KPA1 201635Z 22020KT 04/M03 A3016 RMK A01 T00411026  RH  062%=      5-min Rain = 0
KPA1 201636Z 22020KT 04/M03 A3016 RMK A01 T00401027  RH  061%=      5-min Rain = 0
KPA1 201637Z 22017KT 04/M03 A3016 RMK A01 T00401027  RH  061%=      5-min Rain = 0
KPA1 201638Z 22019KT 04/M02 A3016 RMK A01 T00421024  RH  062%=      5-min Rain = 0
KPA1 201639Z 22018KT 04/M03 A3016 RMK A01 T00431025  RH  061%=      5-min Rain = 0
KPA1 201640Z 22017G22KT 04/M03 A3015 RMK A01 T00431025  RH  061%=      5-min Rain = 0
KPA1 201641Z 22018KT 04/M03 A3015 RMK A01 T00431025  RH  061%=      5-min Rain = 0
KPA1 201642Z 22017KT 04/M03 A3015 RMK A01 T00431026  RH  061%=      5-min Rain = 0
KPA1 201643Z 22016G22KT 04/M02 A3015 RMK A01 T00441024  RH  061%=      5-min Rain = 0
KPA1 201644Z 22016KT 05/M02 A3015 RMK A01 T00451024  RH  061%=      5-min Rain = 0
KPA1 201645Z 22018KT 05/M03 A3015 RMK A01 T00451025  RH  060%=      5-min Rain = 0
KPA1 201646Z 22018G23KT 05/M03 A3015 RMK A01 T00461026  RH  060%=      5-min Rain = 0
KPA1 201647Z 22018KT 05/M03 A3015 RMK A01 T00461025  RH  060%=      5-min Rain = 0
KPA1 201648Z 22019KT 05/M03 A3015 RMK A01 T00471026  RH  059%=      5-min Rain = 0
KPA1 201649Z 22018KT 05/M03 A3015 RMK A01 T00471025  RH  059%=      5-min Rain = 0
KPA1 201650Z 22016KT 05/M03 A3015 RMK A01 T00481025  RH  059%=      5-min Rain = 0
KPA1 201651Z 22020KT 05/M03 A3015 RMK A01 T00491025  RH  059%=      5-min Rain = 0
KPA1 201652Z 22019KT 05/M03 A3015 RMK A01 T00491026  RH  058%=      5-min Rain = 0
KPA1 201653Z 22019KT 05/M03 A3015 RMK A01 T00491027  RH  058%=      5-min Rain = 0
KPA1 201654Z 22018KT 05/M03 A3015 RMK A01 T00491027  RH  058%=      5-min Rain = 0
KPA1 201655Z 22018KT 05/M03 A3015 RMK A01 T00491026  RH  058%=      5-min Rain = 0
KPA1 201656Z 23015KT 05/M03 A3015 RMK A01 T00501027  RH  058%=      5-min Rain = 0
KPA1 201657Z 23015KT 05/M03 A3015 RMK A01 T00501026  RH  058%=      5-min Rain = 0
KPA1 201658Z 22013KT 05/M03 A3016 RMK A01 T00511025  RH  058%=      5-min Rain = 0
KPA1 201659Z 22012KT 05/M02 A3016 RMK A01 T00531023  RH  058%=      5-min Rain = 0
KPA1 201700Z 23012KT 05/M02 A3016 RMK A01 T00541022  RH  058%=      5-min Rain = 0
KPA1 201701Z 23013KT 06/M02 A3016 RMK A01 T00551023  RH  057%=      5-min Rain = 0
KPA1 201702Z 23017KT 05/M03 A3016 RMK A01 T00541026  RH  056%=      5-min Rain = 0
KPA1 201703Z 23015KT 05/M03 A3015 RMK A01 T00521028  RH  056%=      5-min Rain = 0
KPA1 201704Z 23017KT 05/M03 A3015 RMK A01 T00521028  RH  056%=      5-min Rain = 0
KPA1 201705Z 23015KT 05/M03 A3015 RMK A01 T00511029  RH  056%=      5-min Rain = 0
KPA1 201706Z 23018KT 05/M03 A3015 RMK A01 T00501030  RH  056%=      5-min Rain = 0
KPA1 201707Z 23017KT 05/M03 A3015 RMK A01 T00501030  RH  056%=      5-min Rain = 0
KPA1 201708Z 23018KT 05/M03 A3015 RMK A01 T00501030  RH  056%=      5-min Rain = 0
KPA1 201709Z 23017KT 05/M03 A3015 RMK A01 T00501030  RH  056%=      5-min Rain = 0
KPA1 201710Z 23015KT 05/M03 A3015 RMK A01 T00511029  RH  056%=      5-min Rain = 0
KPA1 201711Z 23014KT 05/M03 A3015 RMK A01 T00531026  RH  057%=      5-min Rain = 0
KPA1 201712Z 23014KT 06/M02 A3015 RMK A01 T00561024  RH  057%=      5-min Rain = 0
KPA1 201713Z 23015KT 06/M02 A3015 RMK A01 T00591022  RH  056%=      5-min Rain = 0
KPA1 201714Z 23017KT 06/M03 A3015 RMK A01 T00601025  RH  054%=      5-min Rain = 0
KPA1 201715Z 23016KT 06/M02 A3015 RMK A01 T00601024  RH  055%=      5-min Rain = 0
KPA1 201716Z 23015KT 06/M03 A3015 RMK A01 T00611026  RH  054%=      5-min Rain = 0
KPA1 201717Z 22014KT 06/M03 A3015 RMK A01 T00601025  RH  054%=      5-min Rain = 0
KPA1 201718Z 22017KT 06/M03 A3015 RMK A01 T00611025  RH  054%=      5-min Rain = 0
KPA1 201719Z 23017KT 06/M03 A3015 RMK A01 T00601027  RH  054%=      5-min Rain = 0
KPA1 201720Z 22016KT 06/M03 A3015 RMK A01 T00601026  RH  054%=      5-min Rain = 0
KPA1 201721Z 22017KT 06/M03 A3015 RMK A01 T00591026  RH  054%=      5-min Rain = 0
KPA1 201722Z 23016KT 06/M03 A3015 RMK A01 T00601025  RH  054%=      5-min Rain = 0
KPA1 201723Z 23015KT 06/M02 A3015 RMK A01 T00611024  RH  054%=      5-min Rain = 0
KPA1 201724Z 23015KT 06/M02 A3015 RMK A01 T00621024  RH  054%=      5-min Rain = 0
KPA1 201725Z 22015KT 06/M02 A3015 RMK A01 T00631022  RH  055%=      5-min Rain = 0
KPA1 201726Z 22015KT 07/M02 A3015 RMK A01 T00651022  RH  054%=      5-min Rain = 0
KPA1 201727Z 22016KT 07/M02 A3015 RMK A01 T00661021  RH  054%=      5-min Rain = 0
KPA1 201728Z 22017KT 07/M02 A3015 RMK A01 T00671023  RH  053%=      5-min Rain = 0
KPA1 201729Z 22016KT 07/M03 A3015 RMK A01 T00651026  RH  052%=      5-min Rain = 0
KPA1 201730Z 22017KT 06/M03 A3015 RMK A01 T00641026  RH  053%=      5-min Rain = 0
KPA1 201731Z 22015KT 06/M03 A3015 RMK A01 T00631025  RH  053%=      5-min Rain = 0
KPA1 201732Z 22014KT 06/M03 A3015 RMK A01 T00631026  RH  053%=      5-min Rain = 0
KPA1 201733Z 23013KT 07/M02 A3015 RMK A01 T00651021  RH  054%=      5-min Rain = 0
KPA1 201734Z 22013KT 07/M02 A3015 RMK A01 T00681020  RH  054%=      5-min Rain = 0
KPA1 201735Z 22015KT 07/M02 A3015 RMK A01 T00691020  RH  053%=      5-min Rain = 0
KPA1 201736Z 23013KT 07/M02 A3015 RMK A01 T00701019  RH  053%=      5-min Rain = 0
KPA1 201737Z 23016KT 07/M02 A3015 RMK A01 T00741017  RH  052%=      5-min Rain = 0
KPA1 201738Z 22015KT 07/M02 A3015 RMK A01 T00741021  RH  051%=      5-min Rain = 0
KPA1 201739Z 22015KT 07/M02 A3015 RMK A01 T00731021  RH  051%=      5-min Rain = 0
KPA1 201740Z 22016KT 07/M03 A3015 RMK A01 T00711025  RH  051%=      5-min Rain = 0
KPA1 201741Z 22016KT 07/M03 A3015 RMK A01 T00681026  RH  051%=      5-min Rain = 0
KPA1 201742Z 21015KT 07/M02 A3015 RMK A01 T00681024  RH  052%=      5-min Rain = 0
KPA1 201743Z 22015KT 07/M02 A3015 RMK A01 T00691024  RH  052%=      5-min Rain = 0
KPA1 201744Z 22015KT 07/M03 A3015 RMK A01 T00691025  RH  051%=      5-min Rain = 0
KPA1 201745Z 22016KT 07/M02 A3015 RMK A01 T00701023  RH  051%=      5-min Rain = 0
KPA1 201746Z 22016KT 07/M02 A3015 RMK A01 T00701024  RH  051%=      5-min Rain = 0
KPA1 201747Z 23015KT 07/M03 A3015 RMK A01 T00701025  RH  051%=      5-min Rain = 0
KPA1 201748Z 23013KT 07/M02 A3015 RMK A01 T00701024  RH  051%=      5-min Rain = 0
KPA1 201749Z 23013KT 07/M02 A3015 RMK A01 T00711022  RH  051%=      5-min Rain = 0
KPA1 201750Z 22015KT 07/M02 A3016 RMK A01 T00731021  RH  051%=      5-min Rain = 0
KPA1 201751Z 22015KT 08/M02 A3016 RMK A01 T00751021  RH  051%=      5-min Rain = 0
KPA1 201752Z 22015KT 07/M03 A3016 RMK A01 T00721025  RH  050%=      5-min Rain = 0
KPA1 201753Z 22013KT 07/M03 A3016 RMK A01 T00711025  RH  050%=      5-min Rain = 0
KPA1 201754Z 23013KT 07/M02 A3016 RMK A01 T00741019  RH  052%=      5-min Rain = 0
KPA1 201755Z 23015KT 08/M02 A3015 RMK A01 T00771020  RH  050%=      5-min Rain = 0
KPA1 201756Z 23015KT 08/M02 A3015 RMK A01 T00771021  RH  050%=      5-min Rain = 0
KPA1 201757Z 22014KT 08/M02 A3015 RMK A01 T00771021  RH  050%=      5-min Rain = 0
KPA1 201758Z 22015KT 08/M02 A3015 RMK A01 T00791020  RH  050%=      5-min Rain = 0
KPA1 201759Z 22013KT 08/M02 A3015 RMK A01 T00791020  RH  049%=      5-min Rain = 0
KPA1 201800Z 21011KT 08/M02 A3015 RMK A01 T00811018  RH  050%=      5-min Rain = 0
KPA1 201801Z 22011KT 08/M02 A3015 RMK A01 T00831018  RH  049%=      5-min Rain = 0
KPA1 201802Z 22010KT 08/M02 A3015 RMK A01 T00831019  RH  048%=      5-min Rain = 0
KPA1 201803Z 22009KT 09/M02 A3016 RMK A01 T00851017  RH  049%=      5-min Rain = 0
KPA1 201804Z 24012KT 09/M02 A3016 RMK A01 T00871017  RH  048%=      5-min Rain = 0
KPA1 201805Z 22011KT 09/M02 A3016 RMK A01 T00861021  RH  047%=      5-min Rain = 0
KPA1 201806Z 22012KT 08/M02 A3016 RMK A01 T00841020  RH  048%=      5-min Rain = 0
KPA1 201807Z 22013KT 09/M02 A3016 RMK A01 T00871019  RH  047%=      5-min Rain = 0
KPA1 201808Z 23012KT 09/M02 A3016 RMK A01 T00891017  RH  047%=      5-min Rain = 0
KPA1 201809Z 22010KT 09/M02 A3016 RMK A01 T00901020  RH  046%=      5-min Rain = 0
KPA1 201810Z 23012KT 09/M02 A3015 RMK A01 T00871022  RH  046%=      5-min Rain = 0
KPA1 201811Z 22012KT 09/M02 A3015 RMK A01 T00891018  RH  047%=      5-min Rain = 0
KPA1 201812Z 22009KT 09/M02 A3015 RMK A01 T00901019  RH  046%=      5-min Rain = 0
KPA1 201813Z 21013KT 09/M02 A3015 RMK A01 T00901019  RH  046%=      5-min Rain = 0
KPA1 201814Z 24012KT 09/M02 A3015 RMK A01 T00911019  RH  046%=      5-min Rain = 0
KPA1 201815Z 23012KT 09/M02 A3015 RMK A01 T00901019  RH  046%=      5-min Rain = 0
KPA1 201816Z 23010KT 09/M02 A3015 RMK A01 T00931015  RH  047%=      5-min Rain = 0
KPA1 201817Z 24009KT 09/M02 A3015 RMK A01 T00931018  RH  046%=      5-min Rain = 0
KPA1 201818Z 23011KT 09/M02 A3015 RMK A01 T00901022  RH  045%=      5-min Rain = 0
KPA1 201819Z 21011KT 09/M02 A3015 RMK A01 T00901021  RH  046%=      5-min Rain = 0
KPA1 201820Z 21008KT 09/M02 A3015 RMK A01 T00911020  RH  046%=      5-min Rain = 0
KPA1 201821Z 22008G13KT 09/M02 A3015 RMK A01 T00921019  RH  046%=      5-min Rain = 0
KPA1 201822Z 24012KT 09/M02 A3015 RMK A01 T00931019  RH  045%=      5-min Rain = 0
KPA1 201823Z 23010KT 09/M02 A3015 RMK A01 T00921020  RH  045%=      5-min Rain = 0
KPA1 201824Z 21008KT 09/M02 A3015 RMK A01 T00931019  RH  045%=      5-min Rain = 0
KPA1 201825Z 24010KT 10/M02 A3015 RMK A01 T00951018  RH  045%=      5-min Rain = 0
KPA1 201826Z 25010KT 10/M02 A3015 RMK A01 T00961021  RH  044%=      5-min Rain = 0
KPA1 201827Z 23011KT 09/M02 A3015 RMK A01 T00941021  RH  044%=      5-min Rain = 0
KPA1 201828Z 23012KT 10/M02 A3015 RMK A01 T00971019  RH  044%=      5-min Rain = 0
KPA1 201829Z 24011KT 10/M02 A3015 RMK A01 T00981019  RH  044%=      5-min Rain = 0
KPA1 201830Z 23010KT 10/M02 A3015 RMK A01 T00961023  RH  043%=      5-min Rain = 0
KPA1 201831Z 23010KT 09/M02 A3014 RMK A01 T00941022  RH  044%=      5-min Rain = 0
KPA1 201832Z 22012KT 10/M02 A3014 RMK A01 T00951021  RH  044%=      5-min Rain = 0
KPA1 201833Z 22010KT 10/M02 A3014 RMK A01 T00971019  RH  044%=      5-min Rain = 0
KPA1 201834Z 22011KT 10/M02 A3014 RMK A01 T01001016  RH  044%=      5-min Rain = 0
KPA1 201835Z 22012KT 10/M02 A3014 RMK A01 T01021019  RH  043%=      5-min Rain = 0
KPA1 201836Z 22012KT 10/M02 A3014 RMK A01 T01001021  RH  043%=      5-min Rain = 0
KPA1 201837Z 21011KT 10/M02 A3014 RMK A01 T00991020  RH  043%=      5-min Rain = 0
KPA1 201838Z 23010KT 10/M02 A3014 RMK A01 T00981020  RH  044%=      5-min Rain = 0
KPA1 201839Z 25009KT 10/M02 A3014 RMK A01 T01011016  RH  044%=      5-min Rain = 0
KPA1 201840Z 23009KT 10/M02 A3014 RMK A01 T01031016  RH  043%=      5-min Rain = 0
KPA1 201841Z 22013KT 11/M02 A3014 RMK A01 T01061015  RH  043%=      5-min Rain = 0
KPA1 201842Z 22011KT 11/M02 A3014 RMK A01 T01061018  RH  042%=      5-min Rain = 0
KPA1 201843Z 22009KT 11/M02 A3014 RMK A01 T01051019  RH  042%=      5-min Rain = 0
KPA1 201844Z 22012KT 10/M02 A3014 RMK A01 T01041018  RH  042%=      5-min Rain = 0
KPA1 201845Z 22012KT 11/M02 A3014 RMK A01 T01051017  RH  042%=      5-min Rain = 0
KPA1 201846Z 21012KT 11/M02 A3014 RMK A01 T01051017  RH  042%=      5-min Rain = 0
KPA1 201847Z 21012KT 11/M02 A3014 RMK A01 T01061018  RH  042%=      5-min Rain = 0
KPA1 201848Z 21010KT 10/M02 A3014 RMK A01 T01041020  RH  042%=      5-min Rain = 0
KPA1 201849Z 22008KT 10/M02 A3014 RMK A01 T01041018  RH  043%=      5-min Rain = 0
KPA1 201850Z 22011KT 11/M02 A3014 RMK A01 T01071015  RH  043%=      5-min Rain = 0
KPA1 201851Z 21012KT 11/M02 A3014 RMK A01 T01091017  RH  042%=      5-min Rain = 0
KPA1 201852Z 21013KT 11/M02 A3013 RMK A01 T01061020  RH  041%=      5-min Rain = 0
KPA1 201853Z 21012KT 11/M02 A3013 RMK A01 T01051018  RH  042%=      5-min Rain = 0
KPA1 201854Z 22011KT 11/M02 A3013 RMK A01 T01061018  RH  042%=      5-min Rain = 0
KPA1 201855Z 22011KT 11/M02 A3013 RMK A01 T01061018  RH  042%=      5-min Rain = 0
KPA1 201856Z 22009KT 11/M02 A3013 RMK A01 T01071016  RH  042%=      5-min Rain = 0
KPA1 201857Z 21010KT 11/M01 A3013 RMK A01 T01101013  RH  042%=      5-min Rain = 0
KPA1 201858Z 21010KT 11/M01 A3013 RMK A01 T01131014  RH  041%=      5-min Rain = 0
KPA1 201859Z 22012KT 11/M02 A3013 RMK A01 T01111017  RH  041%=      5-min Rain = 0
KPA1 201900Z 21011KT 11/M02 A3013 RMK A01 T01111020  RH  040%=      5-min Rain = 0
KPA1 201901Z 22011KT 11/M02 A3013 RMK A01 T01091021  RH  040%=      5-min Rain = 0
KPA1 201902Z 22011KT 11/M02 A3013 RMK A01 T01071021  RH  041%=      5-min Rain = 0
KPA1 201903Z 21011KT 11/M02 A3013 RMK A01 T01071019  RH  041%=      5-min Rain = 0
KPA1 201904Z 21008KT 11/M02 A3013 RMK A01 T01071018  RH  042%=      5-min Rain = 0
KPA1 201905Z 22007KT 11/M01 A3012 RMK A01 T01101014  RH  042%=      5-min Rain = 0
KPA1 201906Z 20011KT 11/M02 A3012 RMK A01 T01121015  RH  041%=      5-min Rain = 0
KPA1 201907Z 21012KT 11/M02 A3012 RMK A01 T01101019  RH  040%=      5-min Rain = 0
KPA1 201908Z 22012KT 11/M02 A3012 RMK A01 T01081021  RH  040%=      5-min Rain = 0
KPA1 201909Z 21010KT 11/M02 A3012 RMK A01 T01061022  RH  041%=      5-min Rain = 0
KPA1 201910Z 21011KT 11/M02 A3012 RMK A01 T01051021  RH  041%=      5-min Rain = 0
KPA1 201911Z 22011KT 11/M02 A3012 RMK A01 T01061019  RH  042%=      5-min Rain = 0
KPA1 201912Z 21010KT 11/M02 A3012 RMK A01 T01081017  RH  042%=      5-min Rain = 0
KPA1 201913Z 22009KT 11/M02 A3012 RMK A01 T01081018  RH  041%=      5-min Rain = 0
KPA1 201914Z 19011KT 11/M02 A3012 RMK A01 T01081017  RH  042%=      5-min Rain = 0
KPA1 201915Z 20011KT 11/M02 A3012 RMK A01 T01081017  RH  041%=      5-min Rain = 0
KPA1 201916Z 21008KT 11/M02 A3012 RMK A01 T01091018  RH  041%=      5-min Rain = 0
KPA1 201917Z 22009KT 11/M02 A3012 RMK A01 T01081019  RH  041%=      5-min Rain = 0
KPA1 201918Z 23008KT 11/M02 A3012 RMK A01 T01081019  RH  041%=      5-min Rain = 0
KPA1 201919Z 23008KT 11/M02 A3012 RMK A01 T01081017  RH  042%=      5-min Rain = 0
KPA1 201920Z 22009KT 11/M02 A3012 RMK A01 T01101015  RH  042%=      5-min Rain = 0
KPA1 201921Z 23011KT 11/M01 A3012 RMK A01 T01141014  RH  041%=      5-min Rain = 0
KPA1 201922Z 21010KT 11/M02 A3011 RMK A01 T01141018  RH  040%=      5-min Rain = 0
KPA1 201923Z 21009KT 12/M02 A3011 RMK A01 T01151016  RH  040%=      5-min Rain = 0
KPA1 201924Z 22010G16KT 12/M02 A3011 RMK A01 T01161017  RH  039%=      5-min Rain = 0
KPA1 201925Z 22010KT 12/M02 A3011 RMK A01 T01161018  RH  039%=      5-min Rain = 0
KPA1 201926Z 21010KT 12/M02 A3011 RMK A01 T01151019  RH  039%=      5-min Rain = 0
KPA1 201927Z 20009KT 12/M02 A3011 RMK A01 T01151019  RH  039%=      5-min Rain = 0
KPA1 201928Z 21007KT 11/M02 A3011 RMK A01 T01141019  RH  039%=      5-min Rain = 0
KPA1 201929Z 22006KT 12/M02 A3011 RMK A01 T01151018  RH  040%=      5-min Rain = 0
KPA1 201930Z 22008KT 12/M02 A3011 RMK A01 T01171015  RH  040%=      5-min Rain = 0
KPA1 201931Z 21009KT 12/M02 A3011 RMK A01 T01201016  RH  039%=      5-min Rain = 0
KPA1 201932Z 21007KT 12/M02 A3011 RMK A01 T01161021  RH  038%=      5-min Rain = 0
KPA1 201933Z 20008KT 12/M02 A3011 RMK A01 T01151019  RH  039%=      5-min Rain = 0
KPA1 201934Z 21008KT 12/M02 A3011 RMK A01 T01161018  RH  039%=      5-min Rain = 0
KPA1 201935Z 21008KT 12/M02 A3011 RMK A01 T01181017  RH  039%=      5-min Rain = 0
KPA1 201936Z 20009KT 12/M02 A3011 RMK A01 T01181017  RH  039%=      5-min Rain = 0
KPA1 201937Z 20010KT 12/M02 A3011 RMK A01 T01191019  RH  038%=      5-min Rain = 0
KPA1 201938Z 21010KT 12/M02 A3011 RMK A01 T01161021  RH  038%=      5-min Rain = 0
KPA1 201939Z 21009KT 12/M02 A3011 RMK A01 T01161021  RH  038%=      5-min Rain = 0
KPA1 201940Z 22009KT 11/M02 A3011 RMK A01 T01141023  RH  038%=      5-min Rain = 0
KPA1 201941Z 22006KT 11/M02 A3011 RMK A01 T01131022  RH  039%=      5-min Rain = 0
KPA1 201942Z 23006KT 11/M02 A3011 RMK A01 T01141019  RH  039%=      5-min Rain = 0
KPA1 201943Z 24008KT 12/M02 A301 RMK A01 T01161018  RH  039%=      5-min Rain = 0
KPA1 201944Z 23007KT 12/M02 A301 RMK A01 T01171019  RH  039%=      5-min Rain = 0
KPA1 201945Z 22008KT 12/M02 A301 RMK A01 T01171018  RH  039%=      5-min Rain = 0
KPA1 201946Z 21008KT 12/M02 A301 RMK A01 T01181018  RH  039%=      5-min Rain = 0
KPA1 201947Z 21007KT 12/M02 A301 RMK A01 T01201018  RH  038%=      5-min Rain = 0
KPA1 201948Z 21008KT 12/M02 A301 RMK A01 T01211018  RH  038%=      5-min Rain = 0
KPA1 201949Z 21008KT 12/M02 A301 RMK A01 T01221019  RH  038%=      5-min Rain = 0
KPA1 201950Z 21008KT 12/M02 A3009 RMK A01 T01221020  RH  037%=      5-min Rain = 0
KPA1 201951Z 21008KT 12/M02 A3009 RMK A01 T01221020  RH  037%=      5-min Rain = 0
KPA1 201952Z 20007KT 12/M02 A3009 RMK A01 T01211022  RH  037%=      5-min Rain = 0
KPA1 201953Z 21008KT 12/M02 A3009 RMK A01 T01211021  RH  037%=      5-min Rain = 0
KPA1 201954Z 21008KT 12/M02 A3009 RMK A01 T01211021  RH  037%=      5-min Rain = 0
KPA1 201955Z 21008KT 12/M02 A3009 RMK A01 T01211021  RH  037%=      5-min Rain = 0
KPA1 201956Z 21007KT 12/M02 A3009 RMK A01 T01211021  RH  037%=      5-min Rain = 0
KPA1 201957Z 21007KT 12/M02 A3009 RMK A01 T01221020  RH  037%=      5-min Rain = 0
KPA1 201958Z 21005KT 12/M02 A3009 RMK A01 T01221021  RH  037%=      5-min Rain = 0
KPA1 201959Z 20008KT 12/M02 A3009 RMK A01 T01231020  RH  037%=      5-min Rain = 0
KPA1 202000Z 20007KT 12/M02 A3009 RMK A01 T01231020  RH  037%=      5-min Rain = 0
KPA1 202001Z 21006KT 13/M02 A3009 RMK A01 T01251019  RH  037%=      5-min Rain = 0
KPA1 202002Z 20006KT 13/M02 A3008 RMK A01 T01261019  RH  036%=      5-min Rain = 0
KPA1 202003Z 21010KT 13/M02 A3008 RMK A01 T01271019  RH  036%=      5-min Rain = 0
KPA1 202004Z 22010KT 13/M02 A3008 RMK A01 T01291023  RH  035%=      5-min Rain = 0
KPA1 202005Z 22010KT 13/M02 A3008 RMK A01 T01291024  RH  034%=      5-min Rain = 0
KPA1 202006Z 23008KT 13/M03 A3008 RMK A01 T01281026  RH  034%=      5-min Rain = 0
KPA1 202007Z 20007KT 13/M03 A3008 RMK A01 T01271025  RH  035%=      5-min Rain = 0
KPA1 202008Z 20011KT 13/M02 A3008 RMK A01 T01291022  RH  035%=      5-min Rain = 0
KPA1 202009Z 19010KT 13/M02 A3008 RMK A01 T01301024  RH  034%=      5-min Rain = 0
KPA1 202010Z 18008KT 13/M03 A3008 RMK A01 T01291025  RH  034%=      5-min Rain = 0
KPA1 202011Z 19010KT 13/M02 A3008 RMK A01 T01281024  RH  035%=      5-min Rain = 0
KPA1 202012Z 21009KT 13/M02 A3008 RMK A01 T01291024  RH  035%=      5-min Rain = 0
KPA1 202013Z 22010KT 13/M02 A3008 RMK A01 T01281024  RH  034%=      5-min Rain = 0
KPA1 202014Z 22009KT 13/M03 A3008 RMK A01 T01281025  RH  034%=      5-min Rain = 0
KPA1 202015Z 22008KT 13/M03 A3008 RMK A01 T01291025  RH  034%=      5-min Rain = 0
KPA1 202016Z 22007KT 13/M03 A3008 RMK A01 T01281025  RH  034%=      5-min Rain = 0
KPA1 202017Z 22009KT 13/M02 A3007 RMK A01 T01281024  RH  035%=      5-min Rain = 0
KPA1 202018Z 21009KT 13/M02 A3007 RMK A01 T01281024  RH  035%=      5-min Rain = 0
KPA1 202019Z 21010KT 13/M02 A3007 RMK A01 T01291024  RH  035%=      5-min Rain = 0
KPA1 202020Z 22009KT 13/M03 A3007 RMK A01 T01281026  RH  034%=      5-min Rain = 0
KPA1 202021Z 21006KT 13/M03 A3007 RMK A01 T01271026  RH  035%=      5-min Rain = 0
KPA1 202022Z 19007KT 13/M03 A3007 RMK A01 T01271025  RH  035%=      5-min Rain = 0
KPA1 202023Z 20007G14KT 13/M03 A3007 RMK A01 T01271027  RH  034%=      5-min Rain = 0
KPA1 202024Z 21012KT 13/M03 A3007 RMK A01 T01271025  RH  034%=      5-min Rain = 0
KPA1 202025Z 21011KT 13/M03 A3007 RMK A01 T01271027  RH  034%=      5-min Rain = 0
KPA1 202026Z 20009KT 13/M03 A3007 RMK A01 T01261027  RH  034%=      5-min Rain = 0
KPA1 202027Z 20008KT 13/M03 A3007 RMK A01 T01271026  RH  035%=      5-min Rain = 0
KPA1 202028Z 20006KT 13/M03 A3007 RMK A01 T01271026  RH  034%=      5-min Rain = 0
KPA1 202029Z 19006KT 13/M03 A3007 RMK A01 T01281025  RH  034%=      5-min Rain = 0
KPA1 202030Z 21009KT 13/M03 A3007 RMK A01 T01291026  RH  034%=      5-min Rain = 0
KPA1 202031Z 22008KT 13/M03 A3007 RMK A01 T01281027  RH  034%=      5-min Rain = 0
KPA1 202032Z 21009KT 13/M03 A3007 RMK A01 T01281026  RH  034%=      5-min Rain = 0
KPA1 202033Z 21010KT 13/M03 A3007 RMK A01 T01281027  RH  034%=      5-min Rain = 0
KPA1 202034Z 21010KT 13/M03 A3007 RMK A01 T01301025  RH  034%=      5-min Rain = 0
KPA1 202035Z 22010KT 13/M03 A3007 RMK A01 T01321025  RH  034%=      5-min Rain = 0
KPA1 202036Z 23008KT 13/M03 A3007 RMK A01 T01321025  RH  034%=      5-min Rain = 0
KPA1 202037Z 23007KT 13/M02 A3007 RMK A01 T01341022  RH  034%=      5-min Rain = 0
KPA1 202038Z 23008KT 14/M02 A3007 RMK A01 T01351024  RH  033%=      5-min Rain = 0
KPA1 202039Z 20008KT 13/M03 A3007 RMK A01 T01341025  RH  033%=      5-min Rain = 0
KPA1 202040Z 21008KT 13/M03 A3007 RMK A01 T01331025  RH  033%=      5-min Rain = 0
KPA1 202041Z 21009KT 13/M03 A3007 RMK A01 T01331025  RH  033%=      5-min Rain = 0
KPA1 202042Z 19008KT 13/M02 A3007 RMK A01 T01331023  RH  034%=      5-min Rain = 0
KPA1 202043Z 20007KT 14/M02 A3007 RMK A01 T01351023  RH  034%=      5-min Rain = 0
KPA1 202044Z 19007KT 14/M02 A3007 RMK A01 T01361023  RH  033%=      5-min Rain = 0
KPA1 202045Z 19007KT 14/M02 A3007 RMK A01 T01381022  RH  033%=      5-min Rain = 0
KPA1 202046Z 18008KT 14/M02 A3007 RMK A01 T01391023  RH  033%=      5-min Rain = 0
KPA1 202047Z 19009KT 14/M03 A3007 RMK A01 T01401025  RH  032%=      5-min Rain = 0
KPA1 202048Z 18009KT 14/M02 A3007 RMK A01 T01411024  RH  032%=      5-min Rain = 0
KPA1 202049Z 19008KT 14/M02 A3007 RMK A01 T01441022  RH  032%=      5-min Rain = 0
KPA1 202050Z 19008KT 15/M03 A3007 RMK A01 T01461025  RH  031%=      5-min Rain = 0
KPA1 202051Z 21008KT 14/M03 A3007 RMK A01 T01441028  RH  030%=      5-min Rain = 0
KPA1 202052Z 20011KT 14/M03 A3006 RMK A01 T01431028  RH  031%=      5-min Rain = 0
KPA1 202053Z 18011KT 14/M03 A3006 RMK A01 T01421029  RH  030%=      5-min Rain = 0
KPA1 202054Z 17012KT 14/M03 A3006 RMK A01 T01421028  RH  031%=      5-min Rain = 0
KPA1 202055Z 17008KT 14/M03 A3006 RMK A01 T01431029  RH  030%=      5-min Rain = 0
KPA1 202056Z 19008KT 14/M03 A3006 RMK A01 T01441026  RH  031%=      5-min Rain = 0
KPA1 202057Z 19008KT 15/M03 A3006 RMK A01 T01471027  RH  030%=      5-min Rain = 0
KPA1 202058Z 19008KT 14/M03 A3006 RMK A01 T01441030  RH  030%=      5-min Rain = 0
KPA1 202059Z 19010KT 14/M03 A3006 RMK A01 T01431030  RH  030%=      5-min Rain = 0
KPA1 202100Z 20012KT 14/M03 A3006 RMK A01 T01431030  RH  030%=      5-min Rain = 0
KPA1 202101Z 20009KT 14/M03 A3006 RMK A01 T01421031  RH  030%=      5-min Rain = 0
KPA1 202102Z 20009KT 14/M03 A3006 RMK A01 T01411032  RH  030%=      5-min Rain = 0
KPA1 202103Z 18009KT 14/M03 A3006 RMK A01 T01401029  RH  031%=      5-min Rain = 0
KPA1 202104Z 19009KT 14/M03 A3006 RMK A01 T01421028  RH  031%=      5-min Rain = 0
KPA1 202105Z 19008KT 14/M03 A3006 RMK A01 T01421029  RH  031%=      5-min Rain = 0
KPA1 202106Z 20007KT 14/M03 A3006 RMK A01 T01431029  RH  030%=      5-min Rain = 0
KPA1 202107Z 20009KT 14/M03 A3006 RMK A01 T01421030  RH  030%=      5-min Rain = 0
KPA1 202108Z 18008KT 14/M03 A3006 RMK A01 T01401031  RH  030%=      5-min Rain = 0
KPA1 202109Z 18010KT 14/M03 A3006 RMK A01 T01391032  RH  031%=      5-min Rain = 0
KPA1 202110Z 19009KT 14/M03 A3006 RMK A01 T01381031  RH  031%=      5-min Rain = 0
KPA1 202111Z 21009KT 14/M03 A3006 RMK A01 T01371029  RH  031%=      5-min Rain = 0
KPA1 202112Z 19010KT 14/M03 A3006 RMK A01 T01381027  RH  032%=      5-min Rain = 0
KPA1 202113Z 19010KT 14/M03 A3006 RMK A01 T01381029  RH  031%=      5-min Rain = 0
KPA1 202114Z 19008KT 14/M03 A3006 RMK A01 T01361032  RH  031%=      5-min Rain = 0
KPA1 202115Z 18007KT 14/M03 A3006 RMK A01 T01361030  RH  032%=      5-min Rain = 0
KPA1 202116Z 18008KT 14/M03 A3006 RMK A01 T01371029  RH  031%=      5-min Rain = 0
KPA1 202117Z 18008KT 14/M03 A3006 RMK A01 T01381030  RH  031%=      5-min Rain = 0
KPA1 202118Z 17009KT 14/M03 A3006 RMK A01 T01391029  RH  031%=      5-min Rain = 0
KPA1 202119Z 17008KT 14/M03 A3006 RMK A01 T01391028  RH  031%=      5-min Rain = 0
KPA1 202120Z 19009KT 14/M03 A3005 RMK A01 T01411026  RH  031%=      5-min Rain = 0
KPA1 202121Z 20010KT 14/M03 A3005 RMK A01 T01431026  RH  031%=      5-min Rain = 0
KPA1 202122Z 19010KT 14/M03 A3005 RMK A01 T01441026  RH  031%=      5-min Rain = 0
KPA1 202123Z 19008KT 15/M03 A3005 RMK A01 T01451027  RH  030%=      5-min Rain = 0
KPA1 202124Z 18010KT 15/M03 A3005 RMK A01 T01461027  RH  030%=      5-min Rain = 0
KPA1 202125Z 19009KT 15/M03 A3005 RMK A01 T01481025  RH  030%=      5-min Rain = 0
KPA1 202126Z 19011KT 15/M02 A3005 RMK A01 T01511024  RH  030%=      5-min Rain = 0
KPA1 202127Z 19010KT 15/M03 A3005 RMK A01 T01511026  RH  029%=      5-min Rain = 0
KPA1 202128Z 18012KT 15/M03 A3005 RMK A01 T01521025  RH  029%=      5-min Rain = 0
KPA1 202129Z 19009KT 15/M03 A3005 RMK A01 T01521027  RH  029%=      5-min Rain = 0
KPA1 202130Z 18009KT 15/M03 A3005 RMK A01 T01501029  RH  029%=      5-min Rain = 0
KPA1 202131Z 19011KT 15/M03 A3005 RMK A01 T01501027  RH  029%=      5-min Rain = 0
KPA1 202132Z 20012KT 15/M03 A3005 RMK A01 T01521027  RH  029%=      5-min Rain = 0
KPA1 202133Z 20010KT 15/M03 A3005 RMK A01 T01521028  RH  029%=      5-min Rain = 0
KPA1 202134Z 20009KT 15/M03 A3005 RMK A01 T01521030  RH  029%=      5-min Rain = 0
KPA1 202135Z 18009KT 15/M03 A3005 RMK A01 T01521027  RH  029%=      5-min Rain = 0
KPA1 202136Z 16012KT 16/M02 A3005 RMK A01 T01551024  RH  029%=      5-min Rain = 0
KPA1 202137Z 17010KT 16/M03 A3005 RMK A01 T01551026  RH  029%=      5-min Rain = 0
KPA1 202138Z 16012KT 15/M03 A3005 RMK A01 T01541026  RH  029%=      5-min Rain = 0
KPA1 202139Z 16013KT 15/M03 A3005 RMK A01 T01521029  RH  029%=      5-min Rain = 0
KPA1 202140Z 17011KT 15/M03 A3005 RMK A01 T01501027  RH  029%=      5-min Rain = 0
KPA1 202141Z 16012KT 15/M03 A3004 RMK A01 T01511026  RH  029%=      5-min Rain = 0
KPA1 202142Z 16012KT 15/M03 A3004 RMK A01 T01511028  RH  029%=      5-min Rain = 0
KPA1 202143Z 16012KT 15/M03 A3004 RMK A01 T01511026  RH  029%=      5-min Rain = 0
KPA1 202144Z 18012KT 15/M03 A3004 RMK A01 T01511027  RH  029%=      5-min Rain = 0
KPA1 202145Z 19013KT 15/M03 A3004 RMK A01 T01511028  RH  029%=      5-min Rain = 0
KPA1 202146Z 19012KT 15/M03 A3004 RMK A01 T01491031  RH  029%=      5-min Rain = 0
KPA1 202147Z 17010KT 15/M03 A3004 RMK A01 T01471031  RH  029%=      5-min Rain = 0
KPA1 202148Z 18011KT 15/M03 A3004 RMK A01 T01471030  RH  029%=      5-min Rain = 0
KPA1 202149Z 18010KT 15/M03 A3004 RMK A01 T01481029  RH  029%=      5-min Rain = 0
KPA1 202150Z 18011KT 15/M03 A3004 RMK A01 T01481029  RH  029%=      5-min Rain = 0
KPA1 202151Z 18012KT 15/M03 A3004 RMK A01 T01491028  RH  029%=      5-min Rain = 0
KPA1 202152Z 19010KT 15/M03 A3004 RMK A01 T01491029  RH  029%=      5-min Rain = 0
KPA1 202153Z 20010KT 15/M03 A3004 RMK A01 T01501027  RH  030%=      5-min Rain = 0
KPA1 202154Z 18013KT 15/M02 A3004 RMK A01 T01521024  RH  030%=      5-min Rain = 0
KPA1 202155Z 18012KT 15/M03 A3004 RMK A01 T01531027  RH  029%=      5-min Rain = 0
KPA1 202156Z 18010KT 15/M03 A3004 RMK A01 T01521030  RH  029%=      5-min Rain = 0
KPA1 202157Z 18011KT 15/M03 A3004 RMK A01 T01501028  RH  029%=      5-min Rain = 0
KPA1 202158Z 18011KT 15/M03 A3004 RMK A01 T01511026  RH  029%=      5-min Rain = 0
KPA1 202159Z 18010KT 15/M03 A3004 RMK A01 T01521027  RH  029%=      5-min Rain = 0
KPA1 202200Z 17010KT 15/M03 A3004 RMK A01 T01531025  RH  029%=      5-min Rain = 0
KPA1 202201Z 16012KT 15/M03 A3004 RMK A01 T01531027  RH  029%=      5-min Rain = 0
KPA1 202202Z 19010KT 15/M03 A3004 RMK A01 T01531026  RH  029%=      5-min Rain = 0
KPA1 202203Z 18010KT 15/M03 A3004 RMK A01 T01531027  RH  029%=      5-min Rain = 0
KPA1 202204Z 18012KT 15/M03 A3004 RMK A01 T01531028  RH  029%=      5-min Rain = 0
KPA1 202205Z 18009KT 15/M03 A3004 RMK A01 T01531028  RH  029%=      5-min Rain = 0
KPA1 202206Z 17011KT 15/M03 A3004 RMK A01 T01521029  RH  029%=      5-min Rain = 0
KPA1 202207Z 18012KT 15/M03 A3004 RMK A01 T01511029  RH  029%=      5-min Rain = 0
KPA1 202208Z 20011KT 15/M03 A3004 RMK A01 T01521028  RH  029%=      5-min Rain = 0
KPA1 202209Z 20009KT 15/M03 A3004 RMK A01 T01521031  RH  028%=      5-min Rain = 0
KPA1 202210Z 19010KT 15/M03 A3004 RMK A01 T01511031  RH  028%=      5-min Rain = 0
KPA1 202211Z 19010KT 15/M03 A3004 RMK A01 T01511029  RH  029%=      5-min Rain = 0
KPA1 202212Z 19010G15KT 15/M03 A3004 RMK A01 T01521025  RH  030%=      5-min Rain = 0
KPA1 202213Z 19012KT 15/M03 A3004 RMK A01 T01531026  RH  029%=      5-min Rain = 0
KPA1 202214Z 18013KT 15/M03 A3004 RMK A01 T01511026  RH  029%=      5-min Rain = 0
KPA1 202215Z 19012KT 15/M03 A3004 RMK A01 T01491027  RH  030%=      5-min Rain = 0
KPA1 202216Z 18010KT 15/M03 A3004 RMK A01 T01481026  RH  030%=      5-min Rain = 0
KPA1 202217Z 18008KT 15/M03 A3004 RMK A01 T01481026  RH  030%=      5-min Rain = 0
KPA1 202218Z 18009KT 15/M03 A3004 RMK A01 T01481026  RH  030%=      5-min Rain = 0
KPA1 202219Z 18010KT 15/M03 A3004 RMK A01 T01481025  RH  030%=      5-min Rain = 0
KPA1 202220Z 17012KT 15/M03 A3004 RMK A01 T01481025  RH  030%=      5-min Rain = 0
KPA1 202221Z 17011KT 15/M03 A3004 RMK A01 T01461027  RH  030%=      5-min Rain = 0
KPA1 202222Z 18012KT 14/M03 A3004 RMK A01 T01441026  RH  031%=      5-min Rain = 0
KPA1 202223Z 18012KT 14/M03 A3004 RMK A01 T01441025  RH  031%=      5-min Rain = 0
KPA1 202224Z 17013KT 15/M03 A3004 RMK A01 T01451025  RH  031%=      5-min Rain = 0
KPA1 202225Z 16011KT 15/M03 A3004 RMK A01 T01451025  RH  031%=      5-min Rain = 0
KPA1 202226Z 16011KT 14/M03 A3004 RMK A01 T01441025  RH  031%=      5-min Rain = 0
KPA1 202227Z 16012KT 14/M02 A3004 RMK A01 T01441024  RH  031%=      5-min Rain = 0
KPA1 202228Z 16011KT 14/M02 A3004 RMK A01 T01431024  RH  031%=      5-min Rain = 0
KPA1 202229Z 16013KT 14/M02 A3004 RMK A01 T01431024  RH  031%=      5-min Rain = 0
KPA1 202230Z 16011KT 14/M03 A3004 RMK A01 T01421025  RH  031%=      5-min Rain = 0
KPA1 202231Z 17011KT 14/M02 A3004 RMK A01 T01411024  RH  032%=      5-min Rain = 0
KPA1 202232Z 18012KT 14/M02 A3004 RMK A01 T01411023  RH  032%=      5-min Rain = 0
KPA1 202233Z 18011KT 14/M02 A3004 RMK A01 T01411024  RH  032%=      5-min Rain = 0
KPA1 202234Z 17012KT 14/M02 A3004 RMK A01 T01411024  RH  032%=      5-min Rain = 0
KPA1 202235Z 18011KT 14/M02 A3004 RMK A01 T01411024  RH  032%=      5-min Rain = 0
KPA1 202236Z 18011KT 14/M02 A3004 RMK A01 T01431022  RH  032%=      5-min Rain = 0
KPA1 202237Z 18012KT 14/M02 A3004 RMK A01 T01441023  RH  032%=      5-min Rain = 0
KPA1 202238Z 18011KT 14/M02 A3004 RMK A01 T01441024  RH  031%=      5-min Rain = 0
KPA1 202239Z 17012KT 14/M02 A3004 RMK A01 T01441024  RH  031%=      5-min Rain = 0
KPA1 202240Z 17013KT 14/M02 A3004 RMK A01 T01441024  RH  031%=      5-min Rain = 0
KPA1 202241Z 17014KT 14/M03 A3004 RMK A01 T01441025  RH  031%=      5-min Rain = 0
KPA1 202242Z 17014KT 14/M03 A3004 RMK A01 T01441025  RH  031%=      5-min Rain = 0
KPA1 202243Z 16013KT 14/M02 A3004 RMK A01 T01441024  RH  031%=      5-min Rain = 0
KPA1 202244Z 17013KT 14/M02 A3003 RMK A01 T01441024  RH  031%=      5-min Rain = 0
KPA1 202245Z 17013KT 14/M02 A3004 RMK A01 T01431024  RH  031%=      5-min Rain = 0
KPA1 202246Z 17012KT 14/M03 A3003 RMK A01 T01431025  RH  031%=      5-min Rain = 0
KPA1 202247Z 17011KT 14/M02 A3003 RMK A01 T01421024  RH  032%=      5-min Rain = 0
KPA1 202248Z 17011KT 14/M02 A3003 RMK A01 T01411023  RH  032%=      5-min Rain = 0
KPA1 202249Z 17012KT 14/M02 A3003 RMK A01 T01411022  RH  032%=      5-min Rain = 0
KPA1 202250Z 17014KT 14/M02 A3003 RMK A01 T01391023  RH  032%=      5-min Rain = 0
KPA1 202251Z 17012KT 14/M02 A3003 RMK A01 T01381024  RH  032%=      5-min Rain = 0
KPA1 202252Z 16012KT 14/M02 A3004 RMK A01 T01381023  RH  033%=      5-min Rain = 0
KPA1 202253Z 16012KT 14/M02 A3004 RMK A01 T01371023  RH  033%=      5-min Rain = 0
KPA1 202254Z 16013KT 14/M02 A3003 RMK A01 T01371023  RH  033%=      5-min Rain = 0
KPA1 202255Z 16013KT 14/M02 A3003 RMK A01 T01361024  RH  033%=      5-min Rain = 0
KPA1 202256Z 17012KT 14/M02 A3003 RMK A01 T01361023  RH  033%=      5-min Rain = 0
KPA1 202257Z 17011KT 14/M02 A3003 RMK A01 T01371023  RH  033%=      5-min Rain = 0
KPA1 202258Z 17012KT 14/M02 A3003 RMK A01 T01371022  RH  033%=      5-min Rain = 0
KPA1 202259Z 17013KT 14/M02 A3003 RMK A01 T01371022  RH  033%=      5-min Rain = 0
KPA1 202300Z 17014KT 14/M02 A3003 RMK A01 T01361023  RH  033%=      5-min Rain = 0
KPA1 202301Z 17011KT 14/M02 A3003 RMK A01 T01371023  RH  033%=      5-min Rain = 0
KPA1 202302Z 17011KT 14/M02 A3003 RMK A01 T01361022  RH  033%=      5-min Rain = 0
KPA1 202303Z 17012KT 14/M02 A3003 RMK A01 T01361022  RH  033%=      5-min Rain = 0
KPA1 202304Z 17014KT 14/M02 A3003 RMK A01 T01361023  RH  033%=      5-min Rain = 0
KPA1 202305Z 18013KT 14/M03 A3003 RMK A01 T01361025  RH  033%=      5-min Rain = 0
KPA1 202306Z 18012KT 14/M03 A3003 RMK A01 T01361026  RH  033%=      5-min Rain = 0
KPA1 202307Z 19012KT 14/M03 A3003 RMK A01 T01351026  RH  033%=      5-min Rain = 0
KPA1 202308Z 19011KT 13/M03 A3003 RMK A01 T01341026  RH  033%=      5-min Rain = 0
KPA1 202309Z 19011KT 13/M03 A3003 RMK A01 T01331027  RH  033%=      5-min Rain = 0
KPA1 202310Z 19011KT 13/M03 A3003 RMK A01 T01321029  RH  033%=      5-min Rain = 0
KPA1 202311Z 19011KT 13/M03 A3003 RMK A01 T01311029  RH  033%=      5-min Rain = 0
KPA1 202312Z 19011KT 13/M03 A3003 RMK A01 T01311029  RH  033%=      5-min Rain = 0
KPA1 202313Z 19010KT 13/M03 A3004 RMK A01 T01291029  RH  033%=      5-min Rain = 0
KPA1 202314Z 19012KT 13/M03 A3004 RMK A01 T01281030  RH  033%=      5-min Rain = 0
KPA1 202315Z 19011KT 13/M03 A3004 RMK A01 T01281031  RH  033%=      5-min Rain = 0
KPA1 202316Z 19011KT 13/M03 A3004 RMK A01 T01281031  RH  033%=      5-min Rain = 0
KPA1 202317Z 19011KT 13/M03 A3003 RMK A01 T01271031  RH  033%=      5-min Rain = 0
KPA1 202318Z 19011KT 13/M03 A3003 RMK A01 T01271032  RH  033%=      5-min Rain = 0
KPA1 202319Z 19011KT 13/M03 A3003 RMK A01 T01251032  RH  033%=      5-min Rain = 0
KPA1 202320Z 19011KT 13/M03 A3003 RMK A01 T01251031  RH  033%=      5-min Rain = 0
KPA1 202321Z 19010KT 12/M03 A3003 RMK A01 T01241032  RH  034%=      5-min Rain = 0
KPA1 202322Z 19010KT 12/M03 A3003 RMK A01 T01231032  RH  034%=      5-min Rain = 0
KPA1 202323Z 19010KT 12/M03 A3003 RMK A01 T01221031  RH  034%=      5-min Rain = 0
KPA1 202324Z 19009KT 12/M03 A3003 RMK A01 T01211031  RH  034%=      5-min Rain = 0
KPA1 202325Z 19010KT 12/M03 A3003 RMK A01 T01211031  RH  035%=      5-min Rain = 0
KPA1 202326Z 19010KT 12/M03 A3003 RMK A01 T01201031  RH  035%=      5-min Rain = 0
KPA1 202327Z 19010KT 12/M03 A3003 RMK A01 T01201031  RH  035%=      5-min Rain = 0
KPA1 202328Z 18010KT 12/M03 A3003 RMK A01 T01191031  RH  035%=      5-min Rain = 0
KPA1 202329Z 19009KT 12/M03 A3003 RMK A01 T01181031  RH  035%=      5-min Rain = 0
KPA1 202330Z 18009KT 12/M03 A3003 RMK A01 T01181031  RH  035%=      5-min Rain = 0
KPA1 202331Z 18009KT 12/M03 A3003 RMK A01 T01171031  RH  035%=      5-min Rain = 0
KPA1 202332Z 18009KT 12/M03 A3003 RMK A01 T01161031  RH  036%=      5-min Rain = 0
KPA1 202333Z 18009KT 12/M03 A3003 RMK A01 T01151032  RH  036%=      5-min Rain = 0
KPA1 202334Z 18009KT 11/M03 A3003 RMK A01 T01141032  RH  036%=      5-min Rain = 0
KPA1 202335Z 18009KT 11/M03 A3003 RMK A01 T01121032  RH  036%=      5-min Rain = 0
KPA1 202336Z 18009KT 11/M03 A3003 RMK A01 T01101033  RH  037%=      5-min Rain = 0
KPA1 202337Z 17008KT 11/M03 A3003 RMK A01 T01081032  RH  037%=      5-min Rain = 0
KPA1 202338Z 17008KT 11/M03 A3003 RMK A01 T01071032  RH  038%=      5-min Rain = 0
KPA1 202339Z 17008KT 11/M03 A3003 RMK A01 T01051032  RH  038%=      5-min Rain = 0
KPA1 202340Z 17008KT 10/M03 A3003 RMK A01 T01031032  RH  039%=      5-min Rain = 0
KPA1 202341Z 16008KT 10/M03 A3003 RMK A01 T01021032  RH  039%=      5-min Rain = 0
KPA1 202342Z 17009KT 10/M03 A3003 RMK A01 T01001032  RH  039%=      5-min Rain = 0
KPA1 202343Z 17009KT 10/M03 A3003 RMK A01 T00981032  RH  040%=      5-min Rain = 0
KPA1 202344Z 16008KT 10/M03 A3003 RMK A01 T00971032  RH  040%=      5-min Rain = 0
KPA1 202345Z 16008KT 10/M03 A3003 RMK A01 T00951032  RH  041%=      5-min Rain = 0
KPA1 202346Z 16009KT 09/M03 A3002 RMK A01 T00941032  RH  041%=      5-min Rain = 0
KPA1 202347Z 16008KT 09/M03 A3003 RMK A01 T00931031  RH  042%=      5-min Rain = 0
KPA1 202348Z 16009KT 09/M03 A3003 RMK A01 T00911031  RH  042%=      5-min Rain = 0
KPA1 202349Z 16008KT 09/M03 A3003 RMK A01 T00901031  RH  042%=      5-min Rain = 0
KPA1 202350Z 16008KT 09/M03 A3003 RMK A01 T00891031  RH  043%=      5-min Rain = 0
KPA1 202351Z 16008KT 09/M03 A3003 RMK A01 T00881031  RH  043%=      5-min Rain = 0
KPA1 202352Z 16008KT 09/M03 A3003 RMK A01 T00861031  RH  044%=      5-min Rain = 0
KPA1 202353Z 16008KT 09/M03 A3003 RMK A01 T00851031  RH  044%=      5-min Rain = 0
KPA1 202354Z 16008KT 08/M03 A3003 RMK A01 T00841032  RH  044%=      5-min Rain = 0
KPA1 202355Z 16008KT 08/M03 A3003 RMK A01 T00821032  RH  044%=      5-min Rain = 0
KPA1 202356Z 16008KT 08/M03 A3003 RMK A01 T00811032  RH  045%=      5-min Rain = 0
KPA1 202357Z 16008KT 08/M03 A3003 RMK A01 T00801033  RH  045%=      5-min Rain = 0
KPA1 202358Z 16008KT 08/M03 A3003 RMK A01 T00791033  RH  045%=      5-min Rain = 0
KPA1 202359Z 16008KT 08/M03 A3003 RMK A01 T00781033  RH  045%=      5-min Rain = 0
KPA1 210000Z 16008KT 08/M03 A3003 RMK A01 T00771034  RH  045%=      5-min Rain = 0
KPA1 210001Z 16008KT 08/M03 A3003 RMK A01 T00771034  RH  045%=      5-min Rain = 0
KPA1 210002Z 16008KT 08/M03 A3003 RMK A01 T00761034  RH  046%=      5-min Rain = 0
KPA1 210003Z 16008KT 08/M03 A3003 RMK A01 T00751034  RH  046%=      5-min Rain = 0
KPA1 210004Z 16008KT 07/M03 A3003 RMK A01 T00731034  RH  046%=      5-min Rain = 0
KPA1 210005Z 16008KT 07/M03 A3003 RMK A01 T00721034  RH  047%=      5-min Rain = 0
KPA1 210006Z 16008KT 07/M03 A3003 RMK A01 T00711034  RH  047%=      5-min Rain = 0
KPA1 210007Z 16008KT 07/M03 A3003 RMK A01 T00701034  RH  047%=      5-min Rain = 0
KPA1 210008Z 16007KT 07/M03 A3003 RMK A01 T00701034  RH  048%=      5-min Rain = 0
KPA1 210009Z 16007KT 07/M03 A3003 RMK A01 T00691034  RH  048%=      5-min Rain = 0
KPA1 210010Z 16007KT 07/M03 A3003 RMK A01 T00691034  RH  048%=      5-min Rain = 0
KPA1 210011Z 16007KT 07/M03 A3003 RMK A01 T00681034  RH  048%=      5-min Rain = 0
KPA1 210012Z 15007KT 07/M03 A3003 RMK A01 T00671034  RH  048%=      5-min Rain = 0
KPA1 210013Z 13007KT 07/M04 A3003 RMK A01 T00661035  RH  049%=      5-min Rain = 0
KPA1 210014Z 13007KT 07/M03 A3003 RMK A01 T00671033  RH  049%=      5-min Rain = 0
KPA1 210015Z 13009KT 07/M03 A3003 RMK A01 T00691032  RH  049%=      5-min Rain = 0
KPA1 210016Z 13011KT 07/M03 A3003 RMK A01 T00731030  RH  048%=      5-min Rain = 0
KPA1 210017Z 13011KT 08/M03 A3003 RMK A01 T00781028  RH  047%=      5-min Rain = 0
KPA1 210018Z 14011KT 08/M03 A3003 RMK A01 T00821028  RH  046%=      5-min Rain = 0
KPA1 210019Z 13011KT 08/M03 A3003 RMK A01 T00831029  RH  045%=      5-min Rain = 0
KPA1 210020Z 13011KT 08/M03 A3003 RMK A01 T00831030  RH  045%=      5-min Rain = 0
KPA1 210021Z 13011KT 08/M03 A3003 RMK A01 T00821030  RH  045%=      5-min Rain = 0
KPA1 210022Z 13010KT 08/M03 A3003 RMK A01 T00811031  RH  045%=      5-min Rain = 0
KPA1 210023Z 13010KT 08/M03 A3003 RMK A01 T00801031  RH  046%=      5-min Rain = 0
KPA1 210024Z 13010KT 08/M03 A3003 RMK A01 T00781031  RH  046%=      5-min Rain = 0
KPA1 210025Z 13011KT 08/M03 A3003 RMK A01 T00771031  RH  046%=      5-min Rain = 0
KPA1 210026Z 14010KT 08/M03 A3003 RMK A01 T00761031  RH  047%=      5-min Rain = 0
KPA1 210027Z 14010KT 08/M03 A3003 RMK A01 T00761031  RH  047%=      5-min Rain = 0
KPA1 210028Z 14010KT 08/M03 A3003 RMK A01 T00751031  RH  047%=      5-min Rain = 0
KPA1 210029Z 14010KT 07/M03 A3003 RMK A01 T00731031  RH  047%=      5-min Rain = 0
KPA1 210030Z 14010KT 07/M03 A3003 RMK A01 T00721031  RH  048%=      5-min Rain = 0
KPA1 210031Z 14010KT 07/M03 A3003 RMK A01 T00711032  RH  048%=      5-min Rain = 0
KPA1 210032Z 14010KT 07/M03 A3003 RMK A01 T00691032  RH  048%=      5-min Rain = 0
KPA1 210033Z 14010KT 07/M03 A3003 RMK A01 T00681032  RH  049%=      5-min Rain = 0
KPA1 210034Z 14010KT 07/M03 A3003 RMK A01 T00671033  RH  049%=      5-min Rain = 0
KPA1 210035Z 14010KT 07/M03 A3003 RMK A01 T00661032  RH  049%=      5-min Rain = 0
KPA1 210036Z 14010KT 07/M03 A3003 RMK A01 T00651033  RH  049%=      5-min Rain = 0
KPA1 210037Z 14011KT 06/M03 A3003 RMK A01 T00641033  RH  050%=      5-min Rain = 0
KPA1 210038Z 13011KT 06/M03 A3003 RMK A01 T00641033  RH  050%=      5-min Rain = 0
KPA1 210039Z 14011KT 06/M03 A3003 RMK A01 T00631033  RH  050%=      5-min Rain = 0
KPA1 210040Z 14011KT 06/M03 A3003 RMK A01 T00631033  RH  050%=      5-min Rain = 0
KPA1 210041Z 14011KT 06/M03 A3003 RMK A01 T00641033  RH  050%=      5-min Rain = 0
KPA1 210042Z 14012KT 06/M03 A3003 RMK A01 T00641033  RH  050%=      5-min Rain = 0
KPA1 210043Z 14011KT 06/M03 A3003 RMK A01 T00641033  RH  050%=      5-min Rain = 0
KPA1 210044Z 13012KT 06/M03 A3003 RMK A01 T00641034  RH  050%=      5-min Rain = 0
KPA1 210045Z 13013KT 06/M03 A3003 RMK A01 T00641034  RH  050%=      5-min Rain = 0
KPA1 210046Z 13012KT 06/M03 A3003 RMK A01 T00641034  RH  050%=      5-min Rain = 0
KPA1 210047Z 13012KT 06/M03 A3003 RMK A01 T00641034  RH  049%=      5-min Rain = 0
KPA1 210048Z 13012KT 06/M03 A3003 RMK A01 T00631034  RH  050%=      5-min Rain = 0
KPA1 210049Z 13011KT 06/M03 A3003 RMK A01 T00631034  RH  050%=      5-min Rain = 0
KPA1 210050Z 13012KT 06/M04 A3003 RMK A01 T00621035  RH  050%=      5-min Rain = 0
KPA1 210051Z 13013KT 06/M03 A3003 RMK A01 T00611034  RH  050%=      5-min Rain = 0
KPA1 210052Z 13013KT 06/M03 A3003 RMK A01 T00611034  RH  050%=      5-min Rain = 0
KPA1 210053Z 13013KT 06/M03 A3003 RMK A01 T00611034  RH  050%=      5-min Rain = 0
KPA1 210054Z 13012KT 06/M04 A3003 RMK A01 T00611035  RH  050%=      5-min Rain = 0
KPA1 210055Z 13011KT 06/M03 A3003 RMK A01 T00611034  RH  050%=      5-min Rain = 0
KPA1 210056Z 13012KT 06/M04 A3002 RMK A01 T00601035  RH  050%=      5-min Rain = 0
KPA1 210057Z 13012KT 06/M04 A3002 RMK A01 T00601035  RH  051%=      5-min Rain = 0
KPA1 210058Z 13013KT 06/M04 A3002 RMK A01 T00591035  RH  051%=      5-min Rain = 0
KPA1 210059Z 13013KT 06/M04 A3002 RMK A01 T00591035  RH  051%=      5-min Rain = 0
KPA1 210100Z 13012KT 06/M04 A3002 RMK A01 T00591035  RH  051%=      5-min Rain = 0
KPA1 210101Z 13013KT 06/M04 A3002 RMK A01 T00591035  RH  051%=      5-min Rain = 0
KPA1 210102Z 13012KT 06/M04 A3002 RMK A01 T00591035  RH  051%=      5-min Rain = 0
KPA1 210103Z 13012KT 06/M04 A3002 RMK A01 T00601035  RH  051%=      5-min Rain = 0
KPA1 210104Z 13012KT 06/M04 A3002 RMK A01 T00591035  RH  051%=      5-min Rain = 0
KPA1 210105Z 13012KT 06/M04 A3002 RMK A01 T00591035  RH  051%=      5-min Rain = 0
KPA1 210106Z 13012KT 06/M04 A3002 RMK A01 T00591035  RH  051%=      5-min Rain = 0
KPA1 210107Z 13011KT 06/M04 A3002 RMK A01 T00581035  RH  051%=      5-min Rain = 0
KPA1 210108Z 13011KT 06/M04 A3002 RMK A01 T00571035  RH  051%=      5-min Rain = 0
KPA1 210109Z 13011KT 06/M04 A3002 RMK A01 T00561036  RH  052%=      5-min Rain = 0
KPA1 210110Z 13011KT 06/M04 A3002 RMK A01 T00561036  RH  052%=      5-min Rain = 0
KPA1 210111Z 13011KT 06/M04 A3002 RMK A01 T00561036  RH  052%=      5-min Rain = 0
KPA1 210112Z 13011KT 06/M04 A3002 RMK A01 T00561036  RH  052%=      5-min Rain = 0
KPA1 210113Z 13011KT 06/M04 A3002 RMK A01 T00561035  RH  052%=      5-min Rain = 0
KPA1 210114Z 13012KT 06/M04 A3002 RMK A01 T00551035  RH  052%=      5-min Rain = 0
KPA1 210115Z 13011KT 06/M04 A3002 RMK A01 T00561036  RH  052%=      5-min Rain = 0
KPA1 210116Z 13011KT 06/M04 A3002 RMK A01 T00551036  RH  052%=      5-min Rain = 0
KPA1 210117Z 13011KT 06/M04 A3002 RMK A01 T00551037  RH  052%=      5-min Rain = 0
KPA1 210118Z 13011KT 06/M04 A3002 RMK A01 T00551036  RH  052%=      5-min Rain = 0
KPA1 210119Z 13011KT 05/M04 A3002 RMK A01 T00541037  RH  052%=      5-min Rain = 0
KPA1 210120Z 13011KT 05/M04 A3002 RMK A01 T00541036  RH  052%=      5-min Rain = 0
KPA1 210121Z 13010KT 05/M04 A3002 RMK A01 T00531037  RH  052%=      5-min Rain = 0
KPA1 210122Z 13010KT 05/M04 A3002 RMK A01 T00521037  RH  053%=      5-min Rain = 0
KPA1 210123Z 13010KT 05/M04 A3002 RMK A01 T00521037  RH  053%=      5-min Rain = 0
KPA1 210124Z 13011KT 05/M04 A3002 RMK A01 T00501037  RH  053%=      5-min Rain = 0
KPA1 210125Z 13011KT 05/M04 A3002 RMK A01 T00501037  RH  053%=      5-min Rain = 0
KPA1 210126Z 13011KT 05/M04 A3002 RMK A01 T00491037  RH  054%=      5-min Rain = 0
KPA1 210127Z 13010KT 05/M04 A3002 RMK A01 T00501037  RH  054%=      5-min Rain = 0
KPA1 210128Z 13011KT 05/M04 A3002 RMK A01 T00501036  RH  054%=      5-min Rain = 0
KPA1 210129Z 13011KT 05/M04 A3002 RMK A01 T00491036  RH  054%=      5-min Rain = 0
KPA1 210130Z 13012KT 05/M04 A3002 RMK A01 T00501036  RH  054%=      5-min Rain = 0
KPA1 210131Z 13013KT 05/M04 A3002 RMK A01 T00511036  RH  054%=      5-min Rain = 0
KPA1 210132Z 13013KT 05/M04 A3002 RMK A01 T00521036  RH  053%=      5-min Rain = 0
KPA1 210133Z 13012KT 05/M04 A3002 RMK A01 T00521036  RH  053%=      5-min Rain = 0
KPA1 210134Z 13013KT 05/M04 A3002 RMK A01 T00521036  RH  053%=      5-min Rain = 0
KPA1 210135Z 13013KT 05/M04 A3002 RMK A01 T00531036  RH  053%=      5-min Rain = 0
KPA1 210136Z 13012KT 05/M04 A3002 RMK A01 T00531036  RH  053%=      5-min Rain = 0
KPA1 210137Z 13013KT 05/M04 A3002 RMK A01 T00541036  RH  052%=      5-min Rain = 0
KPA1 210138Z 13011KT 05/M04 A3002 RMK A01 T00531036  RH  052%=      5-min Rain = 0
KPA1 210139Z 13012KT 05/M04 A3002 RMK A01 T00531036  RH  053%=      5-min Rain = 0
KPA1 210140Z 13011KT 05/M04 A3002 RMK A01 T00521037  RH  053%=      5-min Rain = 0
KPA1 210141Z 13011KT 05/M04 A3002 RMK A01 T00521037  RH  053%=      5-min Rain = 0
KPA1 210142Z 14012KT 05/M04 A3002 RMK A01 T00521036  RH  053%=      5-min Rain = 0
KPA1 210143Z 13011KT 05/M04 A3002 RMK A01 T00511036  RH  053%=      5-min Rain = 0
KPA1 210144Z 13011KT 05/M04 A3002 RMK A01 T00511037  RH  053%=      5-min Rain = 0
KPA1 210145Z 13012KT 05/M04 A3002 RMK A01 T00501037  RH  053%=      5-min Rain = 0
KPA1 210146Z 13011KT 05/M04 A3002 RMK A01 T00501037  RH  053%=      5-min Rain = 0
KPA1 210147Z 13011KT 05/M04 A3002 RMK A01 T00491037  RH  053%=      5-min Rain = 0
KPA1 210148Z 14011KT 05/M04 A3002 RMK A01 T00491037  RH  054%=      5-min Rain = 0
KPA1 210149Z 14011KT 05/M04 A3002 RMK A01 T00491037  RH  054%=      5-min Rain = 0
KPA1 210150Z 13011KT 05/M04 A3001 RMK A01 T00491037  RH  054%=      5-min Rain = 0
KPA1 210151Z 14011KT 05/M04 A3001 RMK A01 T00491037  RH  054%=      5-min Rain = 0
KPA1 210152Z 13011KT 05/M04 A3001 RMK A01 T00481037  RH  054%=      5-min Rain = 0
KPA1 210153Z 13012KT 05/M04 A3001 RMK A01 T00481037  RH  054%=      5-min Rain = 0
KPA1 210154Z 13012KT 05/M04 A3001 RMK A01 T00481037  RH  054%=      5-min Rain = 0
KPA1 210155Z 13012KT 05/M04 A3001 RMK A01 T00481037  RH  054%=      5-min Rain = 0
KPA1 210156Z 13011KT 05/M04 A3001 RMK A01 T00481037  RH  054%=      5-min Rain = 0
KPA1 210157Z 13011KT 05/M04 A3001 RMK A01 T00481036  RH  054%=      5-min Rain = 0
KPA1 210158Z 13011KT 05/M04 A3001 RMK A01 T00481036  RH  054%=      5-min Rain = 0
KPA1 210159Z 14011KT 05/M04 A3001 RMK A01 T00481036  RH  054%=      5-min Rain = 0
KPA1 210200Z 13012KT 05/M04 A3001 RMK A01 T00481036  RH  054%=      5-min Rain = 0
KPA1 210201Z 14012KT 05/M04 A3001 RMK A01 T00481036  RH  054%=      5-min Rain = 0
KPA1 210202Z 14013KT 05/M04 A3001 RMK A01 T00491036  RH  054%=      5-min Rain = 0
KPA1 210203Z 13012KT 05/M04 A3001 RMK A01 T00491036  RH  054%=      5-min Rain = 0
KPA1 210204Z 13012KT 05/M04 A3001 RMK A01 T00491036  RH  054%=      5-min Rain = 0
KPA1 210205Z 14012KT 05/M04 A3001 RMK A01 T00491036  RH  054%=      5-min Rain = 0
KPA1 210206Z 13012KT 05/M04 A3001 RMK A01 T00491036  RH  054%=      5-min Rain = 0
KPA1 210207Z 14013KT 05/M04 A3001 RMK A01 T00501035  RH  054%=      5-min Rain = 0
KPA1 210208Z 13012KT 05/M04 A3001 RMK A01 T00511035  RH  054%=      5-min Rain = 0
KPA1 210209Z 14012KT 05/M04 A3001 RMK A01 T00511035  RH  054%=      5-min Rain = 0
KPA1 210210Z 14013KT 05/M04 A3001 RMK A01 T00501035  RH  054%=      5-min Rain = 0
KPA1 210211Z 13013KT 05/M04 A3001 RMK A01 T00501035  RH  054%=      5-min Rain = 0
KPA1 210212Z 13013KT 05/M04 A3001 RMK A01 T00511035  RH  054%=      5-min Rain = 0
KPA1 210213Z 14013KT 05/M04 A3001 RMK A01 T00501035  RH  054%=      5-min Rain = 0
KPA1 210214Z 13012KT 05/M04 A3001 RMK A01 T00511035  RH  054%=      5-min Rain = 0
KPA1 210215Z 14013KT 05/M04 A3001 RMK A01 T00501035  RH  054%=      5-min Rain = 0
KPA1 210216Z 13011KT 05/M04 A3001 RMK A01 T00501035  RH  054%=      5-min Rain = 0
KPA1 210217Z 14010KT 05/M04 A3001 RMK A01 T00491035  RH  054%=      5-min Rain = 0
KPA1 210218Z 14011KT 05/M04 A3001 RMK A01 T00481036  RH  055%=      5-min Rain = 0
KPA1 210219Z 13011KT 05/M04 A3001 RMK A01 T00471036  RH  055%=      5-min Rain = 0
KPA1 210220Z 13011KT 05/M04 A3001 RMK A01 T00471036  RH  055%=      5-min Rain = 0
KPA1 210221Z 13011KT 05/M04 A3001 RMK A01 T00471036  RH  055%=      5-min Rain = 0
KPA1 210222Z 13011KT 05/M04 A3001 RMK A01 T00471036  RH  055%=      5-min Rain = 0
KPA1 210223Z 13011KT 05/M04 A3001 RMK A01 T00461036  RH  055%=      5-min Rain = 0
KPA1 210224Z 13011KT 05/M04 A3001 RMK A01 T00461036  RH  055%=      5-min Rain = 0
KPA1 210225Z 13011KT 05/M04 A3001 RMK A01 T00451036  RH  055%=      5-min Rain = 0
KPA1 210226Z 13010KT 05/M04 A3001 RMK A01 T00451036  RH  056%=      5-min Rain = 0
KPA1 210227Z 13012KT 04/M04 A3001 RMK A01 T00441036  RH  056%=      5-min Rain = 0
KPA1 210228Z 13012KT 04/M04 A30 RMK A01 T00441036  RH  056%=      5-min Rain = 0
KPA1 210229Z 13013KT 04/M04 A30 RMK A01 T00441036  RH  056%=      5-min Rain = 0
KPA1 210230Z 13013KT 04/M04 A3001 RMK A01 T00441036  RH  056%=      5-min Rain = 0
KPA1 210231Z 13014KT 05/M04 A3001 RMK A01 T00451036  RH  056%=      5-min Rain = 0
KPA1 210232Z 14012KT 05/M04 A30 RMK A01 T00451036  RH  056%=      5-min Rain = 0
KPA1 210233Z 13011KT 05/M04 A30 RMK A01 T00451036  RH  056%=      5-min Rain = 0
KPA1 210234Z 14011KT 04/M04 A30 RMK A01 T00441036  RH  056%=      5-min Rain = 0
KPA1 210235Z 14012KT 04/M04 A30 RMK A01 T00431037  RH  056%=      5-min Rain = 0
KPA1 210236Z 13012KT 04/M04 A30 RMK A01 T00431036  RH  056%=      5-min Rain = 0
KPA1 210237Z 13012KT 04/M04 A30 RMK A01 T00431036  RH  056%=      5-min Rain = 0
KPA1 210238Z 14012KT 04/M04 A30 RMK A01 T00431036  RH  056%=      5-min Rain = 0
KPA1 210239Z 13012KT 04/M04 A30 RMK A01 T00431036  RH  056%=      5-min Rain = 0
KPA1 210240Z 13012KT 04/M04 A30 RMK A01 T00431036  RH  057%=      5-min Rain = 0
KPA1 210241Z 13012KT 04/M04 A30 RMK A01 T00421036  RH  057%=      5-min Rain = 0
KPA1 210242Z 14013KT 04/M04 A30 RMK A01 T00421036  RH  057%=      5-min Rain = 0
KPA1 210243Z 13013KT 04/M04 A30 RMK A01 T00421036  RH  057%=      5-min Rain = 0
KPA1 210244Z 13012KT 04/M04 A30 RMK A01 T00411036  RH  057%=      5-min Rain = 0
KPA1 210245Z 13012KT 04/M04 A30 RMK A01 T00411036  RH  057%=      5-min Rain = 0
KPA1 210246Z 13013KT 04/M04 A30 RMK A01 T00411036  RH  057%=      5-min Rain = 0
KPA1 210247Z 13012KT 04/M04 A30 RMK A01 T00411036  RH  057%=      5-min Rain = 0
KPA1 210248Z 13012KT 04/M04 A30 RMK A01 T00411036  RH  057%=      5-min Rain = 0
KPA1 210249Z 13011KT 04/M04 A30 RMK A01 T00401036  RH  057%=      5-min Rain = 0
KPA1 210250Z 13012KT 04/M04 A30 RMK A01 T00401037  RH  057%=      5-min Rain = 0
KPA1 210251Z 13011KT 04/M04 A30 RMK A01 T00391037  RH  058%=      5-min Rain = 0
KPA1 210252Z 13012KT 04/M04 A30 RMK A01 T00401036  RH  058%=      5-min Rain = 0
KPA1 210253Z 13013KT 04/M04 A30 RMK A01 T00401036  RH  058%=      5-min Rain = 0
KPA1 210254Z 13012KT 04/M04 A30 RMK A01 T00391037  RH  058%=      5-min Rain = 0
KPA1 210255Z 13012KT 04/M04 A2999 RMK A01 T00391037  RH  058%=      5-min Rain = 0
KPA1 210256Z 13012KT 04/M04 A2999 RMK A01 T00391036  RH  058%=      5-min Rain = 0
KPA1 210257Z 14012KT 04/M04 A2999 RMK A01 T00381036  RH  058%=      5-min Rain = 0
KPA1 210258Z 14012KT 04/M04 A2999 RMK A01 T00381037  RH  058%=      5-min Rain = 0
KPA1 210259Z 14011KT 04/M04 A2999 RMK A01 T00381037  RH  058%=      5-min Rain = 0
KPA1 210300Z 14013KT 04/M04 A2999 RMK A01 T00381036  RH  058%=      5-min Rain = 0
KPA1 210301Z 14012KT 04/M04 A2999 RMK A01 T00381036  RH  058%=      5-min Rain = 0
KPA1 210302Z 14011KT 04/M04 A2999 RMK A01 T00371037  RH  059%=      5-min Rain = 0
KPA1 210303Z 14011KT 04/M04 A2999 RMK A01 T00371037  RH  059%=      5-min Rain = 0
KPA1 210304Z 14012KT 04/M04 A2999 RMK A01 T00361037  RH  059%=      5-min Rain = 0
KPA1 210305Z 14012KT 04/M04 A2999 RMK A01 T00351037  RH  059%=      5-min Rain = 0
KPA1 210306Z 14011KT 04/M04 A2999 RMK A01 T00351037  RH  059%=      5-min Rain = 0
KPA1 210307Z 14011KT 03/M04 A2999 RMK A01 T00341037  RH  060%=      5-min Rain = 0
KPA1 210308Z 14012KT 03/M04 A2999 RMK A01 T00331037  RH  060%=      5-min Rain = 0
KPA1 210309Z 14011KT 03/M04 A2999 RMK A01 T00321037  RH  060%=      5-min Rain = 0
KPA1 210310Z 14011KT 03/M04 A2999 RMK A01 T00321037  RH  060%=      5-min Rain = 0
KPA1 210311Z 14011KT 03/M04 A2999 RMK A01 T00321037  RH  061%=      5-min Rain = 0
KPA1 210312Z 14012KT 03/M04 A2999 RMK A01 T00321036  RH  061%=      5-min Rain = 0
KPA1 210313Z 14011KT 03/M04 A2999 RMK A01 T00321036  RH  061%=      5-min Rain = 0
KPA1 210314Z 14013KT 03/M04 A2999 RMK A01 T00321036  RH  061%=      5-min Rain = 0
KPA1 210315Z 14013KT 03/M04 A2999 RMK A01 T00331035  RH  061%=      5-min Rain = 0
KPA1 210316Z 14013KT 03/M04 A2999 RMK A01 T00341035  RH  060%=      5-min Rain = 0
KPA1 210317Z 14012KT 03/M04 A2999 RMK A01 T00341036  RH  060%=      5-min Rain = 0
KPA1 210318Z 14013KT 03/M04 A2999 RMK A01 T00341036  RH  060%=      5-min Rain = 0
KPA1 210319Z 14012KT 03/M04 A2999 RMK A01 T00341036  RH  060%=      5-min Rain = 0
KPA1 210320Z 14013KT 03/M04 A2999 RMK A01 T00341036  RH  060%=      5-min Rain = 0
KPA1 210321Z 14012KT 03/M04 A2998 RMK A01 T00331036  RH  060%=      5-min Rain = 0
KPA1 210322Z 14013KT 03/M04 A2998 RMK A01 T00331036  RH  060%=      5-min Rain = 0
KPA1 210323Z 14011KT 03/M04 A2998 RMK A01 T00331036  RH  061%=      5-min Rain = 0
KPA1 210324Z 14012KT 03/M04 A2998 RMK A01 T00331036  RH  061%=      5-min Rain = 0
KPA1 210325Z 14013KT 03/M04 A2998 RMK A01 T00311037  RH  061%=      5-min Rain = 0
KPA1 210326Z 14012KT 03/M04 A2998 RMK A01 T00311036  RH  061%=      5-min Rain = 0
KPA1 210327Z 14013KT 03/M04 A2998 RMK A01 T00311037  RH  061%=      5-min Rain = 0
KPA1 210328Z 14013KT 03/M04 A2998 RMK A01 T00311036  RH  061%=      5-min Rain = 0
KPA1 210329Z 14014KT 03/M04 A2998 RMK A01 T00311036  RH  061%=      5-min Rain = 0
KPA1 210330Z 14013KT 03/M04 A2998 RMK A01 T00311036  RH  062%=      5-min Rain = 0
KPA1 210331Z 14013KT 03/M04 A2998 RMK A01 T00301036  RH  062%=      5-min Rain = 0
KPA1 210332Z 14012KT 03/M04 A2998 RMK A01 T00301037  RH  062%=      5-min Rain = 0
KPA1 210333Z 15012KT 03/M04 A2998 RMK A01 T00291036  RH  062%=      5-min Rain = 0
KPA1 210334Z 14012KT 03/M04 A2998 RMK A01 T00291036  RH  062%=      5-min Rain = 0
KPA1 210335Z 14012KT 03/M04 A2998 RMK A01 T00291036  RH  062%=      5-min Rain = 0
KPA1 210336Z 14012KT 03/M04 A2998 RMK A01 T00291036  RH  063%=      5-min Rain = 0
KPA1 210337Z 14012KT 03/M04 A2998 RMK A01 T00281036  RH  063%=      5-min Rain = 0
KPA1 210338Z 14012KT 03/M04 A2998 RMK A01 T00281036  RH  063%=      5-min Rain = 0
KPA1 210339Z 14013KT 03/M04 A2998 RMK A01 T00281036  RH  063%=      5-min Rain = 0
KPA1 210340Z 14013KT 03/M04 A2998 RMK A01 T00291035  RH  063%=      5-min Rain = 0
KPA1 210341Z 14012KT 03/M04 A2998 RMK A01 T00291035  RH  063%=      5-min Rain = 0
KPA1 210342Z 14012KT 03/M04 A2998 RMK A01 T00281036  RH  063%=      5-min Rain = 0
KPA1 210343Z 14013KT 03/M04 A2998 RMK A01 T00271036  RH  063%=      5-min Rain = 0
KPA1 210344Z 14012KT 03/M04 A2998 RMK A01 T00281035  RH  063%=      5-min Rain = 0
KPA1 210345Z 14013KT 03/M04 A2998 RMK A01 T00281035  RH  063%=      5-min Rain = 0
KPA1 210346Z 14012KT 03/M04 A2998 RMK A01 T00281035  RH  063%=      5-min Rain = 0
KPA1 210347Z 14013KT 03/M04 A2998 RMK A01 T00281035  RH  063%=      5-min Rain = 0
KPA1 210348Z 14013KT 03/M04 A2998 RMK A01 T00271035  RH  063%=      5-min Rain = 0
KPA1 210349Z 14013KT 03/M04 A2998 RMK A01 T00271035  RH  063%=      5-min Rain = 0
KPA1 210350Z 14013KT 03/M04 A2998 RMK A01 T00271036  RH  064%=      5-min Rain = 0
KPA1 210351Z 15013KT 03/M04 A2998 RMK A01 T00271035  RH  064%=      5-min Rain = 0
KPA1 210352Z 15013KT 03/M04 A2998 RMK A01 T00271035  RH  064%=      5-min Rain = 0
KPA1 210353Z 14014KT 03/M04 A2998 RMK A01 T00271035  RH  064%=      5-min Rain = 0
KPA1 210354Z 14013KT 03/M04 A2998 RMK A01 T00271035  RH  064%=      5-min Rain = 0
KPA1 210355Z 14013KT 03/M04 A2998 RMK A01 T00271035  RH  064%=      5-min Rain = 0
KPA1 210356Z 14014KT 03/M03 A2998 RMK A01 T00281034  RH  064%=      5-min Rain = 0
KPA1 210357Z 14013KT 03/M04 A2997 RMK A01 T00281035  RH  064%=      5-min Rain = 0
KPA1 210358Z 14013KT 03/M04 A2997 RMK A01 T00271035  RH  064%=      5-min Rain = 0
KPA1 210359Z 15013KT 03/M04 A2997 RMK A01 T00271035  RH  064%=      5-min Rain = 0
KPA1 210400Z 15014KT 03/M04 A2997 RMK A01 T00271035  RH  064%=      5-min Rain = 0
KPA1 210401Z 15013KT 03/M04 A2997 RMK A01 T00261035  RH  064%=      5-min Rain = 0
KPA1 210402Z 14013KT 03/M04 A2997 RMK A01 T00261035  RH  064%=      5-min Rain = 0
KPA1 210403Z 15013KT 03/M04 A2997 RMK A01 T00251035  RH  064%=      5-min Rain = 0
KPA1 210404Z 15012KT 03/M04 A2997 RMK A01 T00251035  RH  064%=      5-min Rain = 0
KPA1 210405Z 14012KT 02/M04 A2997 RMK A01 T00241035  RH  065%=      5-min Rain = 0
KPA1 210406Z 14013KT 02/M04 A2997 RMK A01 T00241035  RH  065%=      5-min Rain = 0
KPA1 210407Z 14013KT 02/M04 A2997 RMK A01 T00241035  RH  065%=      5-min Rain = 0
KPA1 210408Z 15012KT 02/M04 A2997 RMK A01 T00241035  RH  065%=      5-min Rain = 0
KPA1 210409Z 15012KT 02/M04 A2997 RMK A01 T00241036  RH  065%=      5-min Rain = 0
KPA1 210410Z 15012KT 02/M04 A2997 RMK A01 T00231035  RH  065%=      5-min Rain = 0
KPA1 210411Z 15012KT 02/M04 A2997 RMK A01 T00231035  RH  065%=      5-min Rain = 0
KPA1 210412Z 15012KT 02/M04 A2997 RMK A01 T00231035  RH  065%=      5-min Rain = 0
KPA1 210413Z 15012KT 02/M04 A2997 RMK A01 T00221035  RH  066%=      5-min Rain = 0
KPA1 210414Z 15014KT 02/M04 A2997 RMK A01 T00221035  RH  066%=      5-min Rain = 0
KPA1 210415Z 15013KT 02/M03 A2997 RMK A01 T00231034  RH  066%=      5-min Rain = 0
KPA1 210416Z 15013KT 02/M03 A2997 RMK A01 T00231034  RH  066%=      5-min Rain = 0
KPA1 210417Z 15013KT 02/M03 A2997 RMK A01 T00241034  RH  066%=      5-min Rain = 0
KPA1 210418Z 15013KT 02/M03 A2997 RMK A01 T00241034  RH  066%=      5-min Rain = 0
KPA1 210419Z 15014KT 02/M03 A2997 RMK A01 T00241034  RH  066%=      5-min Rain = 0
KPA1 210420Z 15013KT 02/M03 A2997 RMK A01 T00241034  RH  066%=      5-min Rain = 0
KPA1 210421Z 15013KT 02/M03 A2997 RMK A01 T00241034  RH  066%=      5-min Rain = 0
KPA1 210422Z 15013KT 02/M03 A2997 RMK A01 T00241034  RH  066%=      5-min Rain = 0
KPA1 210423Z 15013KT 02/M03 A2997 RMK A01 T00231034  RH  066%=      5-min Rain = 0
KPA1 210424Z 15014KT 02/M03 A2997 RMK A01 T00231034  RH  066%=      5-min Rain = 0
KPA1 210425Z 15012KT 02/M03 A2997 RMK A01 T00231034  RH  066%=      5-min Rain = 0
KPA1 210426Z 15013KT 02/M03 A2997 RMK A01 T00231034  RH  066%=      5-min Rain = 0
KPA1 210427Z 15012KT 02/M03 A2997 RMK A01 T00231034  RH  066%=      5-min Rain = 0
KPA1 210428Z 15013KT 02/M03 A2997 RMK A01 T00221034  RH  066%=      5-min Rain = 0
KPA1 210429Z 15013KT 02/M04 A2997 RMK A01 T00221035  RH  066%=      5-min Rain = 0
KPA1 210430Z 15013KT 02/M03 A2997 RMK A01 T00221034  RH  066%=      5-min Rain = 0
KPA1 210431Z 15012KT 02/M04 A2997 RMK A01 T00211035  RH  067%=      5-min Rain = 0
KPA1 210432Z 15013KT 02/M03 A2997 RMK A01 T00211034  RH  067%=      5-min Rain = 0
KPA1 210433Z 15012KT 02/M04 A2997 RMK A01 T00211035  RH  067%=      5-min Rain = 0
KPA1 210434Z 15013KT 02/M04 A2997 RMK A01 T00201035  RH  067%=      5-min Rain = 0
KPA1 210435Z 15011KT 02/M04 A2997 RMK A01 T00201035  RH  067%=      5-min Rain = 0
KPA1 210436Z 15011KT 02/M04 A2997 RMK A01 T00191035  RH  067%=      5-min Rain = 0
KPA1 210437Z 15011KT 02/M04 A2997 RMK A01 T00191035  RH  067%=      5-min Rain = 0
KPA1 210438Z 15011KT 02/M04 A2997 RMK A01 T00191035  RH  067%=      5-min Rain = 0
KPA1 210439Z 15011KT 02/M04 A2997 RMK A01 T00181036  RH  067%=      5-min Rain = 0
KPA1 210440Z 15011KT 02/M04 A2997 RMK A01 T00181036  RH  068%=      5-min Rain = 0
KPA1 210441Z 15010KT 02/M04 A2997 RMK A01 T00171036  RH  068%=      5-min Rain = 0
KPA1 210442Z 15010KT 02/M04 A2998 RMK A01 T00171036  RH  068%=      5-min Rain = 0
KPA1 210443Z 15010KT 02/M04 A2998 RMK A01 T00161036  RH  068%=      5-min Rain = 0
KPA1 210444Z 15010KT 02/M04 A2998 RMK A01 T00161036  RH  068%=      5-min Rain = 0
KPA1 210445Z 15010KT 02/M04 A2998 RMK A01 T00161036  RH  069%=      5-min Rain = 0
KPA1 210446Z 15011KT 02/M04 A2998 RMK A01 T00151036  RH  069%=      5-min Rain = 0
KPA1 210447Z 15009KT 02/M04 A2997 RMK A01 T00151036  RH  069%=      5-min Rain = 0
KPA1 210448Z 15010KT 01/M04 A2997 RMK A01 T00141037  RH  069%=      5-min Rain = 0
KPA1 210449Z 15011KT 01/M04 A2997 RMK A01 T00141036  RH  069%=      5-min Rain = 0
KPA1 210450Z 15010KT 01/M04 A2997 RMK A01 T00131036  RH  070%=      5-min Rain = 0
KPA1 210451Z 15010KT 01/M04 A2997 RMK A01 T00131036  RH  070%=      5-min Rain = 0
KPA1 210452Z 15009KT 01/M04 A2997 RMK A01 T00121037  RH  070%=      5-min Rain = 0
KPA1 210453Z 15009KT 01/M04 A2997 RMK A01 T00121037  RH  070%=      5-min Rain = 0
KPA1 210454Z 15009KT 01/M04 A2997 RMK A01 T00121036  RH  070%=      5-min Rain = 0
KPA1 210455Z 15009KT 01/M04 A2997 RMK A01 T00121037  RH  070%=      5-min Rain = 0
KPA1 210456Z 15009KT 01/M04 A2997 RMK A01 T00111037  RH  070%=      5-min Rain = 0
KPA1 210457Z 15009KT 01/M04 A2997 RMK A01 T00111037  RH  070%=      5-min Rain = 0
KPA1 210458Z 15008KT 01/M04 A2997 RMK A01 T00101037  RH  071%=      5-min Rain = 0
KPA1 210459Z 15009KT 01/M04 A2997 RMK A01 T00101037  RH  071%=      5-min Rain = 0
KPA1 210500Z 15009KT 01/M04 A2997 RMK A01 T00091038  RH  071%=      5-min Rain = 0
KPA1 210501Z 15009KT 01/M04 A2997 RMK A01 T00091038  RH  071%=      5-min Rain = 0
KPA1 210502Z 15009KT 01/M04 A2997 RMK A01 T00081038  RH  071%=      5-min Rain = 0
KPA1 210503Z 15009KT 01/M04 A2997 RMK A01 T00081037  RH  071%=      5-min Rain = 0
KPA1 210504Z 15008KT 01/M04 A2997 RMK A01 T00081038  RH  071%=      5-min Rain = 0
KPA1 210505Z 15008KT 01/M04 A2997 RMK A01 T00071038  RH  072%=      5-min Rain = 0
KPA1 210506Z 15007KT 01/M04 A2997 RMK A01 T00071038  RH  072%=      5-min Rain = 0
KPA1 210507Z 15007KT 01/M04 A2997 RMK A01 T00071038  RH  072%=      5-min Rain = 0
KPA1 210508Z 15007KT 01/M04 A2997 RMK A01 T00061039  RH  072%=      5-min Rain = 0
KPA1 210509Z 15007KT 01/M04 A2997 RMK A01 T00051038  RH  072%=      5-min Rain = 0
KPA1 210510Z 15007KT 01/M04 A2997 RMK A01 T00051039  RH  073%=      5-min Rain = 0
KPA1 210511Z 15008KT 00/M04 A2997 RMK A01 T00041039  RH  073%=      5-min Rain = 0
KPA1 210512Z 15007KT 00/M04 A2997 RMK A01 T00041039  RH  073%=      5-min Rain = 0
KPA1 210513Z 15008KT 00/M04 A2997 RMK A01 T00041038  RH  073%=      5-min Rain = 0
KPA1 210514Z 14008KT 00/M04 A2997 RMK A01 T00041039  RH  073%=      5-min Rain = 0
KPA1 210515Z 14008KT 00/M04 A2997 RMK A01 T00041038  RH  073%=      5-min Rain = 0
KPA1 210516Z 14007KT 00/M04 A2997 RMK A01 T00031039  RH  073%=      5-min Rain = 0
KPA1 210517Z 14008KT 00/M04 A2997 RMK A01 T00031038  RH  074%=      5-min Rain = 0
KPA1 210518Z 15007KT 00/M04 A2997 RMK A01 T00031038  RH  074%=      5-min Rain = 0
KPA1 210519Z 14008KT 00/M04 A2997 RMK A01 T00031039  RH  074%=      5-min Rain = 0
KPA1 210520Z 14008KT 00/M04 A2997 RMK A01 T00031039  RH  074%=      5-min Rain = 0
KPA1 210521Z 15008KT 00/M04 A2997 RMK A01 T00021039  RH  074%=      5-min Rain = 0
KPA1 210522Z 15008KT 00/M04 A2997 RMK A01 T00021039  RH  074%=      5-min Rain = 0
KPA1 210523Z 15008KT 00/M04 A2997 RMK A01 T00021039  RH  074%=      5-min Rain = 0
KPA1 210524Z 15008KT 00/M04 A2997 RMK A01 T00021039  RH  074%=      5-min Rain = 0
KPA1 210525Z 15009KT 00/M04 A2997 RMK A01 T00021038  RH  074%=      5-min Rain = 0
KPA1 210526Z 15008KT 00/M04 A2997 RMK A01 T00021038  RH  074%=      5-min Rain = 0
KPA1 210527Z 15009KT 00/M04 A2997 RMK A01 T00021038  RH  075%=      5-min Rain = 0
KPA1 210528Z 15009KT 00/M04 A2997 RMK A01 T00031037  RH  075%=      5-min Rain = 0
KPA1 210529Z 15009KT 00/M04 A2997 RMK A01 T00031036  RH  075%=      5-min Rain = 0
KPA1 210530Z 15010KT 00/M04 A2997 RMK A01 T00041035  RH  075%=      5-min Rain = 0
KPA1 210531Z 15010KT 01/M03 A2997 RMK A01 T00051034  RH  075%=      5-min Rain = 0
KPA1 210532Z 15010KT 01/M03 A2997 RMK A01 T00061034  RH  075%=      5-min Rain = 0
KPA1 210533Z 15011KT 01/M03 A2997 RMK A01 T00071033  RH  074%=      5-min Rain = 0
KPA1 210534Z 15011KT 01/M03 A2996 RMK A01 T00081033  RH  074%=      5-min Rain = 0
KPA1 210535Z 15011KT 01/M03 A2996 RMK A01 T00081033  RH  074%=      5-min Rain = 0
KPA1 210536Z 15011KT 01/M03 A2996 RMK A01 T00081033  RH  074%=      5-min Rain = 0
KPA1 210537Z 15011KT 01/M03 A2996 RMK A01 T00081033  RH  074%=      5-min Rain = 0
KPA1 210538Z 15011KT 01/M03 A2996 RMK A01 T00081033  RH  074%=      5-min Rain = 0
KPA1 210539Z 15012KT 01/M03 A2996 RMK A01 T00081033  RH  074%=      5-min Rain = 0
KPA1 210540Z 15013KT 01/M03 A2996 RMK A01 T00091032  RH  074%=      5-min Rain = 0
KPA1 210541Z 15014KT 01/M03 A2996 RMK A01 T00101032  RH  073%=      5-min Rain = 0
KPA1 210542Z 15013KT 01/M03 A2996 RMK A01 T00101033  RH  073%=      5-min Rain = 0
KPA1 210543Z 15014KT 01/M03 A2996 RMK A01 T00101033  RH  073%=      5-min Rain = 0
KPA1 210544Z 15013KT 01/M03 A2996 RMK A01 T00101033  RH  073%=      5-min Rain = 0
KPA1 210545Z 15013KT 01/M03 A2996 RMK A01 T00101034  RH  073%=      5-min Rain = 0
KPA1 210546Z 15013KT 01/M03 A2996 RMK A01 T00101033  RH  073%=      5-min Rain = 0
KPA1 210547Z 15014KT 01/M03 A2996 RMK A01 T00091033  RH  073%=      5-min Rain = 0
KPA1 210548Z 15014KT 01/M03 A2996 RMK A01 T00091034  RH  073%=      5-min Rain = 0
KPA1 210549Z 15014KT 01/M03 A2996 RMK A01 T00091033  RH  073%=      5-min Rain = 0
KPA1 210550Z 15014KT 01/M03 A2996 RMK A01 T00091033  RH  073%=      5-min Rain = 0
KPA1 210551Z 15014KT 01/M03 A2996 RMK A01 T00101032  RH  073%=      5-min Rain = 0
KPA1 210552Z 15014KT 01/M03 A2996 RMK A01 T00111032  RH  073%=      5-min Rain = 0
KPA1 210553Z 15014KT 01/M03 A2996 RMK A01 T00111032  RH  073%=      5-min Rain = 0
KPA1 210554Z 16014KT 01/M03 A2995 RMK A01 T00111033  RH  073%=      5-min Rain = 0
KPA1 210555Z 15014KT 01/M03 A2995 RMK A01 T00101033  RH  073%=      5-min Rain = 0
KPA1 210556Z 15013KT 01/M03 A2995 RMK A01 T00101033  RH  073%=      5-min Rain = 0
KPA1 210557Z 15014KT 01/M03 A2995 RMK A01 T00091033  RH  073%=      5-min Rain = 0
KPA1 210558Z 15014KT 01/M03 A2995 RMK A01 T00091033  RH  073%=      5-min Rain = 0
KPA1 210559Z 15013KT 01/M03 A2995 RMK A01 T00091033  RH  073%=      5-min Rain = 0

Page generated in 0.0815 seconds.